GFSSW_850_rhum_000.txt.gz
RH
32 31 32 33 36 40 62 79 86 89 97 94 93 92 89 88 91 93 96 65 54 48 73 64 67 70 79 66 56 45 39 38 35 35 28 24 28 31 33 31 24 24 23 25 22
38 36 36 41 40 36 36 42 49 57 63 71 87 92 91 92 94 99 73 64 59 54 84 90 74 79 69 62 57 43 42 36 30 27 28 28 33 35 34 27 24 21 23 25 24
51 52 42 45 40 42 49 48 57 66 56 57 70 89 93 92 100 91 65 57 58 66 64 84 97 81 65 56 52 45 42 31 34 33 32 34 34 36 36 33 25 23 22 24 26
53 54 50 42 43 49 51 57 58 74 79 70 68 73 84 95 77 94 85 63 58 78 96 76 94 86 69 60 48 47 41 35 35 39 40 37 37 38 36 36 32 31 30 28 26
56 54 48 46 56 51 53 60 61 75 80 76 67 78 90 99 84 81 75 71 59 95 99 76 90 74 68 57 49 49 37 41 40 41 42 43 41 37 38 34 33 33 32 28 26
58 58 64 68 74 72 57 60 70 68 70 69 70 74 94 87 84 70 68 67 69 90 97 79 82 68 52 53 51 46 43 41 38 41 41 42 37 40 32 30 29 28 29 29 25
55 60 62 69 75 82 75 69 60 65 67 74 81 79 99 81 70 58 60 66 55 71 84 81 78 85 58 58 55 46 50 42 40 42 39 41 38 33 30 24 26 26 28 32 25
44 85 65 66 79 86 80 77 75 66 65 82 86 85 85 84 77 73 66 71 70 67 78 81 84 99 95 57 55 56 52 54 37 40 40 37 40 26 26 24 23 26 33 41 38
42 63 60 75 77 72 74 87 88 71 77 83 92 97 80 79 79 65 70 72 81 66 70 83 93 95 82 70 74 61 63 55 42 39 37 37 35 22 26 26 24 24 33 39 44
43 55 86 79 77 87 87 85 93 90 98 98 89 93 85 81 81 81 72 69 75 83 82 88 87 94 86 84 81 66 58 45 47 36 35 34 36 26 24 26 24 26 34 39 42
42 56 73 74 77 89 99 90 100 100 100 88 83 68 76 77 78 86 79 76 78 79 83 71 90 92 71 76 48 39 44 49 39 34 38 38 36 28 27 27 26 28 34 39 43
41 51 76 73 82 76 100 99 90 88 98 91 89 81 83 85 81 77 84 70 72 80 80 66 89 66 79 61 56 45 47 47 34 36 37 38 40 33 26 25 25 28 34 39 45
45 51 69 79 82 85 98 100 98 97 96 94 92 88 80 83 76 72 82 65 64 73 86 80 74 58 83 64 65 50 50 41 42 44 41 38 37 31 25 27 29 30 35 40 42
48 51 81 89 91 95 100 97 98 96 100 88 92 85 88 78 75 68 75 60 65 70 89 60 54 78 77 73 57 57 42 45 52 64 57 38 46 32 24 27 30 36 40 43 46
59 54 81 80 99 97 92 100 100 97 95 66 83 75 75 64 56 70 77 59 62 79 87 76 80 87 78 68 48 48 47 49 53 60 55 46 44 30 28 28 31 35 38 45 48
88 67 65 85 89 98 100 97 98 97 92 92 84 80 80 66 53 73 78 60 63 67 70 52 86 80 61 54 52 48 50 52 48 52 62 41 41 31 25 22 26 34 40 47 51
98 96 76 84 97 94 100 99 100 97 85 99 98 93 74 65 54 77 72 73 92 99 100 83 89 91 60 81 64 49 60 97 90 79 58 38 42 28 24 24 24 33 40 45 52
100 100 97 95 94 99 100 98 99 84 94 83 86 88 80 60 55 77 64 63 70 82 64 100 99 93 65 63 80 61 52 52 62 58 46 43 43 26 24 26 25 28 37 44 51
100 100 99 98 97 100 97 100 85 93 86 95 79 91 66 59 54 77 55 54 71 73 73 96 99 82 68 60 55 82 79 40 46 48 45 37 34 27 28 29 30 30 38 46 51
100 98 98 97 97 100 98 98 94 82 82 62 58 56 60 56 73 76 52 39 61 62 60 57 91 66 62 64 62 61 49 66 53 60 56 41 39 30 26 27 31 30 38 45 52
99 100 92 100 99 98 100 97 87 79 72 43 47 51 49 54 83 56 49 48 47 52 56 55 51 67 58 73 74 56 73 62 44 44 44 41 34 24 25 26 28 28 34 44 53
94 96 100 99 98 92 98 89 87 82 73 38 40 42 42 48 73 64 48 54 37 55 67 58 41 79 64 47 42 44 48 47 54 56 44 41 33 24 25 28 30 30 35 46 49
92 99 100 100 97 96 87 90 86 81 62 45 54 50 47 52 73 69 55 36 47 58 59 44 45 66 74 58 46 56 48 48 37 38 44 45 36 26 28 32 36 33 39 46 51
93 97 100 100 98 95 94 91 92 73 54 56 54 57 58 58 48 57 55 57 63 52 57 44 46 40 53 48 44 54 47 47 48 51 42 38 31 28 27 32 35 36 36 42 51
79 82 82 90 95 96 95 88 88 84 71 79 62 57 50 59 69 66 57 70 59 65 61 54 48 46 44 42 40 44 49 44 46 42 43 35 36 28 23 29 31 35 36 40 48
78 82 90 76 83 92 96 93 89 93 82 87 93 57 52 55 56 69 71 65 69 66 62 51 52 41 45 49 41 43 42 45 44 40 35 33 34 27 28 31 34 34 37 43 51
87 70 76 56 60 85 88 91 88 83 94 89 74 62 58 51 45 52 55 51 52 59 64 54 47 46 49 42 43 52 43 42 38 34 32 38 31 30 37 34 35 40 45 49 54

GFSSW_850_rhum_003.txt.gz
RH
34 35 34 32 30 29 36 68 85 94 100 95 88 94 94 94 96 91 92 74 67 56 50 74 68 69 65 58 49 43 38 38 30 28 25 21 23 23 27 26 23 21 21 21 26
41 44 46 42 42 38 31 30 47 72 84 82 86 95 93 98 98 100 77 66 63 64 75 65 59 54 62 55 48 42 40 34 24 22 24 22 24 27 28 24 22 22 20 21 22
46 55 54 47 46 40 38 40 35 34 41 48 52 71 93 99 99 87 76 61 55 59 70 71 66 65 54 52 45 42 41 28 26 24 26 26 27 27 29 30 25 22 21 22 24
44 58 55 51 51 54 51 47 44 46 64 77 74 66 77 95 67 81 59 61 56 71 91 72 62 74 58 53 43 42 35 32 27 28 32 31 29 28 30 29 28 29 28 27 26
40 60 57 50 63 68 56 55 58 51 60 82 77 72 83 94 77 70 69 68 74 93 84 72 55 56 68 47 47 43 34 31 32 30 32 34 32 32 32 30 29 27 26 27 27
37 55 61 63 74 79 74 61 64 66 61 72 75 72 94 78 66 69 72 73 70 76 84 76 58 49 50 56 49 45 37 34 32 33 32 34 32 31 30 30 27 24 21 23 23
33 42 62 60 80 91 85 79 63 53 63 62 80 84 89 71 66 68 69 66 62 61 64 73 66 56 53 56 49 46 45 37 33 32 30 33 37 33 30 27 20 18 18 22 31
53 39 77 77 77 84 93 87 75 63 56 65 78 97 94 71 72 71 69 64 63 62 62 63 68 62 64 83 74 51 57 62 38 33 31 36 45 25 23 20 19 20 23 30 38
79 44 44 78 69 82 75 79 91 80 68 74 87 100 78 76 77 66 66 61 56 66 63 61 71 69 70 96 92 78 76 66 46 30 32 36 38 24 23 20 20 19 20 28 36
84 58 41 66 68 77 82 97 90 94 79 93 98 97 78 75 70 72 69 66 59 57 63 62 71 72 75 88 93 77 72 53 56 33 34 36 36 27 21 22 21 19 22 29 34
79 66 46 61 78 86 84 95 98 100 100 92 86 64 66 67 74 79 68 70 64 56 65 60 80 85 59 75 70 55 62 49 42 31 33 37 33 26 23 23 23 21 25 30 36
76 52 47 67 72 82 93 97 97 92 97 92 78 79 70 76 71 74 70 65 58 64 49 66 87 52 43 53 76 63 56 45 42 33 34 32 32 26 25 25 24 21 24 30 38
60 53 49 67 78 90 98 78 100 97 98 96 94 84 72 81 66 62 68 62 49 57 52 68 61 45 44 58 86 58 64 53 45 36 34 35 41 35 28 24 24 22 25 31 34
68 54 55 76 92 92 99 90 96 100 100 87 96 95 86 92 83 65 64 57 55 59 49 56 47 62 49 68 73 82 56 37 41 44 49 36 39 25 25 24 23 23 27 32 35
82 61 60 76 91 97 97 92 100 99 96 63 90 86 90 91 48 51 58 63 59 55 68 68 69 80 63 64 73 81 57 40 45 47 57 52 48 30 23 24 25 23 29 34 38
90 81 64 83 87 98 94 100 100 99 92 83 79 84 77 87 56 52 54 59 50 56 70 52 58 60 62 64 81 63 56 55 48 46 59 38 41 28 26 23 21 24 31 37 40
100 90 82 93 92 96 99 99 100 97 76 97 98 88 75 77 63 62 70 76 86 99 100 80 81 84 74 94 91 72 79 82 70 67 50 31 37 29 20 19 18 25 31 37 42
100 100 91 90 96 98 100 98 99 64 75 91 95 95 99 64 54 54 75 86 61 80 92 91 84 86 74 90 92 80 69 48 58 54 41 35 43 28 20 19 19 26 31 36 42
100 100 99 96 92 100 98 100 84 69 90 96 96 100 100 74 38 44 70 86 47 64 100 85 89 76 84 67 64 83 75 39 40 35 38 38 29 23 22 24 21 25 31 36 41
100 100 97 100 93 100 99 97 87 69 88 84 85 62 75 66 46 53 63 51 43 46 70 89 96 88 87 69 81 72 42 54 43 51 46 36 30 29 26 25 24 23 30 35 40
100 99 95 92 99 100 97 97 78 74 83 62 45 47 41 43 44 51 45 32 34 41 72 87 94 93 89 78 84 83 68 48 34 36 39 40 33 22 22 22 24 24 27 34 41
100 92 98 97 98 93 96 94 81 80 87 54 32 32 32 33 43 46 39 34 28 37 94 78 93 99 93 47 47 59 60 41 43 50 37 36 33 20 20 23 23 23 27 33 41
94 75 100 98 98 96 81 92 86 84 70 50 38 33 29 35 44 43 39 28 37 39 70 57 78 98 94 62 52 61 44 40 38 35 39 37 33 20 21 25 26 25 27 34 42
80 96 100 100 94 89 94 94 95 76 69 44 39 38 42 41 35 45 46 33 41 36 56 50 54 47 50 45 53 65 55 40 38 44 37 35 30 23 23 26 27 28 29 36 41
82 83 76 96 95 92 92 88 95 90 68 46 61 48 49 45 43 55 42 43 40 47 48 59 54 40 34 34 41 44 49 51 51 44 42 32 32 25 22 23 25 28 31 36 41
80 60 82 82 75 83 93 92 95 85 68 76 89 48 47 43 36 46 40 42 60 52 56 55 59 42 45 41 36 41 40 43 44 42 39 32 32 23 23 23 25 27 29 33 39
97 85 75 54 61 76 83 86 86 81 84 60 74 68 50 42 35 37 35 42 46 50 64 68 66 46 50 43 44 51 38 38 39 36 35 41 32 24 29 27 27 28 31 34 39

GFSSW_850_rhum_006.txt.gz
RH
28 32 39 42 41 36 30 34 68 88 92 100 97 95 97 98 98 93 78 71 72 68 61 46 66 63 69 67 55 45 57 53 43 38 32 20 23 22 23 26 24 23 22 21 23
33 39 46 53 50 46 42 34 31 55 78 90 94 88 94 97 100 99 72 71 70 65 58 64 58 53 57 64 57 51 61 51 31 28 27 22 22 23 26 27 25 22 22 20 20
36 42 52 55 50 46 41 41 44 39 40 53 78 78 79 84 98 78 70 61 61 64 58 78 65 61 54 54 55 51 61 40 30 26 24 24 27 24 28 34 28 24 24 26 25
33 38 50 53 50 48 50 51 52 51 50 54 54 49 56 88 82 77 69 68 71 95 91 89 68 62 63 58 50 53 44 40 36 30 28 31 29 30 28 29 29 29 28 28 28
59 37 48 55 53 59 65 59 57 65 58 64 79 69 66 94 79 74 61 58 72 79 93 82 69 55 61 56 50 50 42 37 34 32 31 29 33 35 32 30 30 30 29 27 26
79 41 43 57 65 74 78 75 66 74 73 73 82 79 89 77 62 64 71 58 68 69 82 78 68 56 47 50 57 48 45 45 39 32 31 32 33 32 32 30 30 30 27 23 21
78 55 39 56 64 77 80 79 81 74 68 73 71 77 96 75 63 63 63 69 66 62 60 63 66 69 50 48 54 51 67 48 45 36 32 32 39 38 32 31 29 29 20 18 22
64 76 45 59 90 72 76 80 84 80 76 73 72 94 89 77 67 66 64 63 55 56 59 57 58 64 64 58 66 73 68 85 49 38 35 35 48 35 30 28 28 19 19 24 31
76 73 83 70 85 76 81 71 71 87 84 81 76 91 73 69 76 65 66 63 57 53 60 56 55 64 67 70 87 78 82 83 67 41 37 38 45 35 31 25 21 19 19 28 34
81 68 90 53 76 74 79 77 92 89 93 98 96 93 75 69 72 72 67 65 61 54 53 60 57 67 73 79 89 79 90 65 72 51 40 41 41 36 31 25 21 20 18 28 34
88 61 80 70 74 84 89 84 80 94 100 82 78 67 62 66 67 68 67 64 64 60 65 53 77 85 71 69 66 60 60 74 52 47 44 43 40 37 30 28 25 22 22 29 36
89 71 76 70 76 79 90 94 87 93 97 96 80 79 64 72 65 67 66 64 63 73 57 64 84 59 51 53 64 65 74 80 54 45 46 42 41 35 32 28 26 24 22 30 40
86 82 63 64 77 85 90 92 83 84 100 96 89 86 76 76 67 59 68 64 58 67 62 72 59 52 51 51 59 62 74 79 69 46 49 42 46 38 30 25 25 25 21 31 39
88 82 56 63 82 77 95 98 99 94 100 88 94 94 88 90 88 67 62 62 59 63 56 61 49 46 56 57 52 66 56 64 79 68 76 43 63 42 34 34 31 25 25 34 37
95 81 55 62 89 92 89 93 91 100 97 76 90 90 91 95 77 72 66 63 64 57 53 75 54 53 55 62 48 61 52 68 82 85 74 51 58 42 34 39 32 29 28 34 37
100 85 67 78 93 94 96 92 95 99 94 83 87 92 91 92 81 77 66 66 60 64 53 55 47 54 59 52 66 52 64 76 92 90 95 76 54 47 37 31 30 27 32 34 37
100 92 80 80 88 83 93 99 100 99 66 95 92 80 74 91 91 85 69 71 77 91 94 94 79 65 80 87 64 68 78 95 100 99 82 45 54 35 26 24 25 28 34 37 40
100 100 90 95 92 97 98 96 100 55 71 85 91 91 99 90 94 88 75 77 65 74 90 85 76 79 70 91 77 81 84 100 96 98 59 38 52 40 24 22 23 26 34 38 43
100 100 99 98 99 100 92 99 78 70 77 96 97 100 100 96 88 80 70 92 61 59 98 100 86 59 56 61 80 91 97 79 99 37 54 50 34 28 28 26 29 32 37 40 44
100 100 98 100 100 100 98 88 83 71 87 93 98 73 84 84 70 61 57 47 58 54 60 90 95 70 70 73 75 88 68 99 87 56 65 54 46 43 36 34 31 36 39 41 43
100 99 94 100 99 100 97 90 75 72 85 93 70 60 52 67 58 45 45 42 46 49 72 90 97 96 88 96 86 98 98 93 80 55 56 61 48 33 32 32 31 34 36 40 43
99 99 99 98 98 97 96 81 88 82 84 82 73 64 39 47 52 44 50 49 38 41 69 90 99 100 96 78 75 80 78 78 57 60 49 53 46 26 30 28 31 28 34 38 42
96 97 100 98 97 97 86 87 90 90 86 81 60 37 31 33 42 38 49 37 34 67 80 89 99 99 99 92 86 91 77 63 57 46 57 48 47 30 33 32 26 27 33 38 42
92 96 100 100 91 87 91 96 96 86 84 72 58 40 36 37 32 59 42 41 39 42 69 90 90 100 91 74 77 87 80 66 55 57 45 42 40 32 36 36 32 27 31 38 43
89 89 86 98 96 93 90 92 96 96 80 72 57 45 48 48 42 39 46 39 44 39 70 84 96 74 43 56 57 60 61 56 54 44 49 35 36 30 33 37 34 28 32 40 44
92 77 87 83 70 82 88 93 95 90 92 73 63 59 61 47 40 44 40 44 44 52 52 57 79 65 51 43 48 56 55 56 55 48 48 46 42 32 26 26 30 30 33 40 43
94 78 77 61 74 88 86 87 86 87 86 80 73 56 70 47 38 29 34 34 45 52 64 70 76 64 60 44 46 55 48 51 51 48 48 55 42 32 32 31 31 29 32 37 41

GFSSW_850_rhum_009.txt.gz
RH
26 30 32 40 48 47 40 30 30 56 85 94 97 100 99 99 97 92 78 70 71 64 65 58 46 56 58 60 64 62 74 74 62 51 41 30 24 22 22 23 25 25 24 22 22
27 34 37 45 50 47 41 40 35 32 52 78 82 100 100 100 100 98 69 68 77 69 66 57 54 59 60 67 71 67 83 68 45 40 38 31 27 23 25 28 28 27 24 25 23
44 32 41 46 51 46 40 39 40 42 40 36 52 78 91 97 99 82 72 69 70 87 67 61 60 67 64 58 66 65 74 56 45 39 35 32 30 27 29 33 28 29 28 29 27
70 40 40 48 55 45 50 54 54 54 49 49 47 47 63 88 91 70 68 68 68 90 90 75 69 72 67 78 56 79 60 56 51 45 44 40 31 31 30 32 29 30 30 30 29
74 66 40 44 61 51 60 64 60 57 60 57 69 75 74 85 87 69 60 61 68 72 84 92 87 78 71 64 65 72 58 53 49 47 43 38 37 35 33 30 30 30 30 30 30
77 84 57 37 60 65 72 74 75 63 66 64 64 86 85 94 49 60 67 65 66 67 81 86 84 72 67 58 62 57 57 53 48 46 41 39 37 35 32 32 32 31 31 30 30
80 72 64 36 49 62 73 86 88 77 62 64 64 76 86 75 62 64 64 67 68 62 62 76 67 73 69 68 58 62 71 59 60 48 50 45 45 42 32 32 31 32 31 29 21
89 80 64 55 40 76 70 82 88 88 79 71 70 77 89 66 58 67 63 68 66 66 59 58 58 59 67 66 64 74 76 85 58 56 48 47 60 39 32 32 33 32 31 25 23
88 87 67 79 45 79 76 83 76 75 89 81 84 76 83 66 68 64 69 63 59 57 57 53 55 57 65 79 84 87 85 88 78 54 52 47 55 42 32 31 33 30 32 24 26
86 89 71 84 65 73 77 87 79 94 92 96 84 97 76 65 66 63 66 68 60 58 57 58 59 78 82 90 87 72 88 67 83 61 58 62 56 43 32 33 33 30 21 29 30
88 94 74 79 78 67 79 84 83 90 100 85 81 71 61 64 69 71 67 70 68 65 77 59 88 85 82 77 74 64 66 66 60 56 60 56 58 45 37 36 34 29 26 36 37
85 91 83 73 75 69 93 92 83 91 96 90 80 85 68 68 70 67 67 69 67 76 73 77 83 69 63 64 70 73 86 84 66 61 72 63 57 47 40 37 35 31 32 39 41
86 90 89 77 70 83 84 98 87 86 95 91 78 90 86 74 76 68 69 68 70 84 79 85 63 54 61 66 72 75 88 81 75 64 65 73 73 55 43 36 32 29 29 37 35
91 96 92 76 77 78 90 76 87 95 100 80 90 90 93 89 86 78 66 64 69 82 74 78 59 59 62 72 64 79 56 59 66 70 89 65 82 61 47 40 37 32 34 43 39
94 98 87 57 71 81 72 84 94 98 96 75 84 86 92 90 80 81 69 73 78 71 73 80 67 69 70 64 59 68 51 56 62 78 83 76 89 53 43 43 39 45 43 43 39
97 99 81 76 93 88 87 93 89 94 93 90 88 87 88 94 81 74 76 76 84 86 75 71 50 57 59 49 47 54 72 72 72 78 97 85 86 64 45 38 35 39 44 44 44
100 100 79 64 92 96 90 77 98 95 59 92 90 83 80 82 87 75 92 94 98 99 99 83 89 69 80 81 67 70 78 92 98 98 87 72 95 76 41 36 33 36 44 46 45
100 100 89 74 82 82 84 94 97 66 75 79 83 77 96 75 87 82 98 99 89 85 92 95 89 75 80 78 73 81 75 84 93 83 66 78 100 59 39 32 29 38 42 44 48
100 100 93 86 97 89 77 98 83 68 74 95 94 100 100 91 85 96 98 98 69 77 89 94 89 60 58 61 61 76 87 63 98 90 86 91 78 53 36 35 38 43 46 51 53
100 100 98 92 100 94 93 83 81 66 84 92 100 96 78 79 97 98 91 75 73 62 57 81 95 66 70 60 65 60 58 90 99 98 96 86 57 49 40 42 45 48 48 53 53
99 99 98 98 100 99 100 89 73 67 77 94 96 90 76 83 86 81 64 53 58 56 57 82 95 79 89 89 79 91 94 73 75 85 99 97 60 39 36 39 45 47 47 52 52
98 98 100 100 98 97 97 76 67 77 75 84 92 81 79 67 76 68 59 44 55 51 71 89 99 99 84 75 65 71 81 60 72 84 97 58 49 33 37 36 40 44 47 50 51
98 99 100 100 98 98 83 81 72 79 82 89 92 68 60 59 83 59 54 46 54 65 89 93 100 97 100 96 90 80 76 74 62 94 93 62 52 36 39 37 36 43 47 50 51
91 98 100 100 95 89 88 87 94 89 89 85 84 72 65 57 53 54 46 47 48 54 74 92 100 100 99 87 79 91 74 75 93 97 56 56 50 42 40 39 41 43 46 48 49
90 93 86 97 97 92 83 87 96 97 91 86 86 81 68 55 46 53 53 47 58 71 85 87 100 100 91 80 71 76 83 92 100 66 45 46 45 45 42 40 39 44 49 51 53
96 91 85 88 82 95 92 95 92 94 92 87 88 62 59 73 48 49 49 51 53 74 81 86 99 95 80 80 75 82 84 71 58 49 50 52 46 31 37 34 38 46 49 51 53
88 79 79 82 83 93 88 85 83 82 86 81 79 86 75 65 58 40 48 38 41 61 68 83 90 83 71 61 70 72 62 62 57 50 50 58 43 36 39 39 41 44 47 50 50

GFSSW_850_rhum_015.txt.gz
RH
95 76 34 36 43 56 57 49 44 34 55 91 96 98 96 94 92 99 86 70 68 64 60 58 55 53 66 51 64 70 84 87 66 64 46 38 35 31 29 26 25 24 25 27 26
95 92 72 35 48 54 59 48 42 39 34 78 100 100 100 100 99 98 72 78 73 70 69 68 62 54 61 67 62 82 94 73 59 52 49 39 38 36 33 33 30 30 29 27 25
89 94 90 61 68 58 59 49 44 42 43 35 77 89 91 99 100 92 78 73 80 80 72 76 69 64 66 66 72 82 84 64 60 53 46 49 44 41 38 40 30 29 29 30 28
83 88 89 78 72 66 60 53 57 57 54 48 38 58 76 89 91 68 73 74 70 86 97 85 74 71 77 80 68 80 72 68 64 58 59 60 52 46 40 36 35 33 32 32 30
82 84 90 78 66 85 67 63 66 61 60 57 48 48 54 94 88 65 59 61 74 91 97 99 93 80 80 74 71 81 74 65 59 63 65 62 63 62 53 48 40 40 34 32 31
80 82 86 84 79 67 90 65 76 71 63 64 56 70 75 84 40 67 70 67 68 89 92 94 96 84 83 77 72 66 65 64 59 61 62 64 61 58 52 47 45 42 37 33 30
82 84 83 88 83 65 90 77 89 80 72 60 66 74 91 61 56 48 73 73 72 66 63 71 77 88 87 83 71 69 80 72 68 60 65 57 65 64 54 52 50 46 39 34 32
80 79 79 82 85 66 60 74 88 98 86 72 66 71 67 55 58 68 61 71 71 74 71 65 78 74 67 64 69 77 80 93 60 62 61 60 69 53 47 47 48 44 40 35 32
85 79 77 86 88 67 62 75 86 88 90 82 75 72 70 62 57 59 64 70 70 71 74 71 64 61 60 79 83 86 91 90 73 58 62 72 68 52 43 44 48 43 40 36 33
85 86 87 79 92 71 61 92 87 86 85 97 91 87 73 61 58 56 56 67 66 65 64 62 65 74 78 84 88 82 98 85 81 62 63 72 66 57 50 51 50 46 39 38 36
92 90 92 89 82 78 71 100 92 88 99 92 80 81 62 67 66 67 62 67 69 66 78 65 88 93 75 74 78 88 90 92 73 57 70 75 71 59 55 56 55 53 47 41 37
100 92 97 87 97 90 74 95 80 81 92 87 93 88 72 75 75 70 68 72 76 90 80 83 95 75 63 71 76 79 91 87 77 63 65 66 69 58 56 53 56 52 49 44 40
97 98 96 93 99 100 86 82 83 83 84 77 85 98 95 78 80 75 71 72 79 92 90 88 67 60 67 74 82 85 92 82 80 62 60 64 58 40 38 44 49 53 48 44 42
88 100 100 100 100 98 98 82 88 81 93 76 95 88 89 87 81 75 71 67 73 87 80 78 60 64 70 78 78 83 72 75 77 82 93 65 62 45 47 46 46 50 50 47 42
89 100 99 99 96 99 85 76 92 90 78 69 91 90 93 82 77 80 75 70 76 84 83 87 89 77 82 76 66 72 62 70 77 90 91 78 91 69 51 53 53 62 49 45 42
88 100 100 100 93 77 80 71 90 84 80 92 85 88 88 86 80 78 80 76 89 85 78 73 67 74 75 65 61 63 76 80 77 85 94 70 79 54 43 57 58 55 50 46 42
86 94 100 95 86 69 70 91 94 90 62 89 82 89 85 84 82 83 91 93 97 99 98 99 96 80 74 74 66 63 85 97 98 97 84 60 72 58 45 45 46 49 46 42 44
79 86 99 96 92 71 78 86 91 64 85 69 76 93 93 83 80 84 87 87 78 97 100 97 98 96 87 77 78 78 76 90 91 94 84 52 78 56 50 36 32 34 39 42 48
88 98 98 100 86 78 80 97 81 66 78 79 77 87 89 73 73 88 78 74 74 75 91 98 93 79 78 65 67 100 98 69 75 66 96 83 74 68 64 66 61 54 47 46 54
99 98 100 100 73 90 85 83 74 70 79 69 87 74 80 75 86 91 85 75 77 67 67 77 95 75 73 69 69 72 64 94 98 96 90 73 86 67 62 54 49 55 50 52 56
97 97 99 94 86 94 96 86 75 80 75 83 81 83 80 88 86 79 75 74 75 76 72 76 86 85 84 88 77 86 84 74 72 84 91 85 54 64 57 48 56 58 52 58 65
88 100 100 100 97 97 95 83 65 88 79 82 79 68 80 82 90 91 94 72 69 74 91 74 90 97 76 66 56 63 69 73 94 84 68 84 71 46 57 48 51 59 62 69 77
96 95 100 99 98 98 91 79 75 78 77 73 81 73 74 81 87 87 74 53 65 66 81 78 99 96 97 88 86 100 86 68 66 80 80 72 49 51 44 55 54 64 68 78 82
96 100 99 99 94 86 85 87 84 71 71 69 84 74 85 88 74 71 73 51 54 58 75 85 100 98 89 95 96 96 83 76 67 79 71 68 50 42 47 53 59 64 73 81 80
95 98 97 98 98 78 76 76 82 90 83 79 86 94 92 83 88 82 65 58 59 56 77 92 99 100 95 92 97 99 76 77 77 64 70 51 60 48 62 51 48 61 73 76 76
96 96 86 81 88 80 80 85 83 81 90 96 97 87 86 95 72 64 56 58 70 84 83 95 99 100 95 81 94 100 95 77 69 65 64 68 72 58 52 51 56 63 69 73 76
99 97 77 83 82 90 91 87 80 77 80 77 82 93 90 81 71 73 71 64 61 80 96 100 100 100 99 96 96 100 90 84 69 64 70 94 68 51 61 52 50 63 64 67 69

GFSSW_850_rhum_018.txt.gz
RH
82 91 93 79 35 40 42 51 51 50 44 58 98 94 84 95 91 96 92 74 72 67 64 62 59 56 54 54 63 69 84 90 72 66 53 39 38 34 31 30 31 27 28 28 26
99 82 92 91 70 46 51 54 51 45 48 42 87 98 97 98 99 96 75 82 79 71 67 69 64 55 56 64 63 82 95 75 63 55 50 43 42 40 37 38 35 31 29 28 26
91 96 83 93 85 49 60 56 48 45 48 43 58 99 98 99 98 86 74 75 83 82 81 78 72 61 63 68 72 83 87 65 64 58 57 54 51 46 43 50 37 33 33 33 29
77 84 78 85 89 70 61 62 51 56 58 52 43 69 88 98 91 71 75 76 78 93 99 90 79 67 77 78 69 81 75 75 69 63 65 67 62 63 50 45 36 38 41 36 34
76 79 82 83 88 79 75 71 69 65 62 63 59 54 68 100 90 68 64 68 75 88 98 95 89 74 77 77 72 81 78 68 64 62 62 62 68 70 66 58 52 45 45 40 38
79 78 81 90 82 82 71 88 78 76 68 70 69 82 77 93 49 67 67 71 83 97 100 100 97 86 82 80 73 68 70 70 65 60 62 68 64 62 54 54 53 50 46 40 40
98 87 81 87 81 83 79 88 80 85 77 65 73 81 94 60 54 55 75 74 81 98 92 89 96 82 87 88 75 73 82 77 72 64 65 56 69 72 54 50 52 47 49 44 36
100 86 86 84 89 84 76 76 79 86 92 76 73 78 70 57 56 65 64 75 73 73 69 66 79 85 84 66 66 75 79 89 66 67 62 60 67 50 43 43 52 48 45 42 36
100 97 89 89 92 80 77 65 78 87 97 87 82 79 72 63 60 55 66 65 71 71 72 74 70 65 65 78 84 76 89 84 72 55 64 78 74 56 52 51 57 53 50 47 42
99 99 97 89 98 94 77 70 82 84 83 96 92 92 74 62 58 58 64 70 70 72 73 70 64 78 76 82 92 80 88 82 79 62 68 77 77 63 52 49 54 52 49 49 46
95 98 96 89 99 100 82 95 100 96 93 85 87 81 66 69 65 61 60 64 67 65 81 68 89 94 81 78 74 82 92 94 79 67 74 71 69 60 55 55 59 56 54 52 45
97 94 100 98 99 100 79 80 80 73 89 87 94 88 78 77 75 71 68 69 75 86 78 81 95 76 68 71 73 74 81 81 70 66 71 69 68 53 51 55 54 62 57 57 50
90 87 92 91 100 100 87 70 75 73 78 74 83 99 79 80 82 75 73 73 81 94 91 85 67 66 72 78 84 86 89 84 84 66 63 68 60 38 31 33 38 41 41 42 51
75 84 84 92 100 99 98 95 80 70 90 72 94 90 92 90 80 73 69 69 79 88 77 90 70 72 77 82 80 91 67 74 83 90 91 63 71 44 42 41 32 32 38 46 43
69 64 72 99 100 100 79 92 79 69 94 74 94 95 93 76 74 86 77 69 78 86 82 82 89 88 88 74 72 73 65 78 84 94 94 84 93 66 52 53 48 55 48 42 40
72 73 74 96 99 93 85 81 76 82 90 88 86 90 94 82 76 81 83 75 82 76 75 72 70 71 74 65 66 63 75 78 82 85 96 72 84 54 43 38 40 44 36 36 39
89 88 77 97 100 98 86 84 93 90 67 88 82 82 77 83 78 80 92 96 95 97 99 94 94 79 77 84 73 74 100 97 98 97 84 65 78 56 40 38 41 42 41 37 33
90 96 97 99 100 94 78 76 92 67 83 69 76 77 80 76 77 82 87 92 84 92 100 97 90 87 81 80 81 83 80 93 94 94 86 64 82 66 47 37 34 31 34 39 40
99 98 97 95 100 86 71 88 80 67 75 73 79 81 90 82 78 74 86 80 67 84 98 99 91 82 90 74 65 98 97 70 84 80 96 79 71 50 55 59 60 50 40 35 38
100 91 73 90 100 89 74 83 67 63 74 72 84 75 86 78 84 87 79 70 69 67 70 79 93 74 83 80 74 84 79 98 98 96 92 80 65 62 51 55 57 53 66 49 40
99 92 88 83 100 97 96 81 69 79 66 75 81 84 68 76 79 74 81 70 77 77 71 75 89 83 87 92 83 94 96 98 89 95 91 85 58 58 62 59 57 59 50 48 46
96 93 87 98 100 94 92 75 69 90 79 80 74 67 73 80 91 87 88 77 68 77 87 72 97 96 80 66 60 61 71 73 81 84 87 86 55 44 63 62 59 73 64 58 55
96 91 96 98 100 100 84 80 74 87 85 80 84 74 68 82 87 85 82 62 68 78 85 74 98 97 92 85 70 99 82 67 66 80 79 80 59 28 30 42 60 75 77 81 82
99 99 100 100 96 83 77 77 85 72 74 69 78 72 83 87 75 78 82 61 69 71 69 68 98 94 92 84 97 100 98 100 97 95 73 72 58 42 44 57 60 74 76 90 89
99 99 98 100 99 74 70 80 82 96 76 78 85 82 92 100 88 94 78 67 65 62 78 86 99 98 96 93 98 99 96 97 98 83 81 56 54 43 39 58 60 60 76 93 92
100 99 92 93 90 74 80 90 81 79 83 84 88 77 88 98 79 70 78 68 65 76 82 87 97 100 96 83 98 98 98 94 91 78 74 63 58 49 56 57 58 66 76 88 90
98 98 84 87 87 83 80 82 82 75 79 72 81 89 95 87 82 77 71 71 74 75 84 98 100 100 87 96 100 99 88 92 82 76 68 83 63 49 59 62 67 57 68 78 84

GFSSW_850_rhum_021.txt.gz
RH
89 79 94 88 89 77 35 48 63 60 50 41 38 98 85 76 96 100 87 70 72 72 69 67 62 57 53 53 66 67 77 76 61 60 45 41 39 35 35 32 33 31 28 30 29
84 80 93 85 89 88 64 46 59 59 47 41 38 94 92 93 99 99 78 82 81 78 73 68 64 56 57 64 66 75 84 74 61 54 48 44 44 42 39 39 39 35 32 33 32
60 81 80 97 80 89 85 46 60 53 46 45 35 85 93 93 97 87 83 84 85 86 79 82 73 60 62 68 69 84 79 67 63 58 61 62 58 50 46 50 42 38 34 34 35
94 84 84 84 83 78 86 58 60 52 58 56 44 52 96 97 92 77 80 77 73 95 98 94 78 64 76 75 72 78 76 78 71 61 63 67 64 67 58 50 45 40 40 43 39
100 85 84 84 92 82 82 74 62 64 64 63 59 49 73 95 84 76 67 70 77 96 93 90 81 69 72 77 75 81 76 71 67 65 64 63 68 64 64 56 50 51 49 45 43
99 98 93 86 90 97 79 78 79 81 71 69 65 74 73 94 62 72 73 68 78 94 97 90 88 77 77 78 71 68 73 72 67 65 61 62 59 66 51 47 43 42 46 42 42
98 98 100 90 86 98 83 78 70 79 82 72 72 76 85 62 53 54 72 76 93 91 91 92 88 77 83 88 80 76 81 70 70 67 65 61 63 70 55 54 51 47 43 37 36
99 100 100 100 94 98 96 80 66 80 91 80 69 77 67 57 56 55 71 86 99 97 76 81 84 90 88 71 67 77 76 76 62 63 64 59 59 48 42 49 56 51 47 42 27
93 99 99 99 98 96 99 85 61 84 90 96 87 77 70 65 61 56 66 76 78 75 75 72 80 72 70 78 80 82 86 90 66 58 60 71 75 56 58 59 58 54 54 54 51
88 82 98 97 100 98 100 91 72 89 94 100 98 93 77 67 62 60 69 68 70 74 76 73 68 76 74 79 88 84 90 79 71 60 67 69 68 56 53 52 51 51 49 47 48
84 93 85 84 99 100 100 99 97 98 94 85 90 82 72 72 67 68 66 70 69 72 86 71 85 88 76 76 68 76 83 86 76 63 69 62 61 52 46 50 51 51 49 45 46
86 91 84 64 99 100 100 91 77 60 92 71 95 89 82 77 74 76 68 70 70 85 78 82 92 66 70 60 71 75 83 78 64 61 65 65 65 50 48 46 43 42 44 48 39
91 90 99 63 84 100 100 82 74 61 68 74 78 93 83 77 79 77 72 74 81 90 87 87 69 64 72 78 78 77 86 77 72 67 62 67 61 38 31 37 40 42 41 41 44
86 94 91 74 100 96 100 89 74 70 85 69 94 89 90 81 76 70 70 67 80 85 72 73 64 74 83 83 79 87 71 72 76 80 80 63 67 37 33 30 30 30 30 35 38
98 99 97 85 86 99 97 88 71 53 76 74 95 93 92 79 67 85 76 69 85 84 83 78 85 92 85 73 74 77 63 70 74 88 84 74 88 55 48 47 40 40 35 32 29
100 91 81 90 97 90 99 89 67 82 95 94 86 92 92 80 78 87 82 75 74 74 76 75 71 71 78 71 68 71 80 76 81 85 96 68 76 53 41 36 34 32 28 27 30
99 97 88 93 77 96 98 96 92 88 70 94 86 88 78 82 79 81 92 95 91 99 98 88 84 78 73 78 74 71 100 95 96 97 82 60 77 53 40 37 36 34 34 28 28
96 91 96 95 76 100 100 98 90 71 80 68 75 78 83 74 74 82 89 93 82 88 98 94 86 85 77 72 81 86 84 87 89 85 71 67 81 54 44 35 34 35 34 34 31
98 100 92 93 90 100 99 98 78 69 73 79 76 84 85 75 80 74 82 81 72 88 96 93 84 78 81 78 67 97 97 68 84 71 92 63 60 49 44 46 50 50 49 52 43
100 100 88 82 91 100 98 91 66 71 69 74 86 77 85 80 93 82 80 67 72 72 65 81 97 74 80 85 78 89 73 96 97 96 86 73 75 61 48 42 56 57 56 56 56
100 99 93 87 100 100 100 82 74 76 63 72 80 83 76 84 82 82 80 68 71 73 69 80 84 82 93 94 74 92 98 99 92 90 86 72 48 40 34 45 62 60 65 65 62
100 100 95 94 99 100 96 74 80 88 78 78 71 69 75 78 82 73 84 73 68 77 88 74 91 98 85 59 64 66 70 73 95 78 85 87 62 48 58 64 61 64 66 64 70
100 98 99 86 99 100 83 84 83 88 82 77 82 69 70 80 90 84 80 64 71 77 85 76 98 98 83 84 69 94 80 78 92 88 94 91 57 33 32 42 58 70 76 68 75
100 100 100 98 99 92 81 87 91 74 76 72 76 73 81 84 71 82 84 65 69 72 70 65 92 89 72 66 93 99 96 95 98 96 75 78 60 44 40 42 47 52 66 74 77
100 99 98 100 99 77 65 71 92 90 80 74 85 79 80 95 87 87 81 71 76 72 74 80 100 96 89 78 81 98 96 99 98 84 90 58 56 46 40 38 53 58 71 72 86
100 99 98 95 88 70 76 76 79 91 78 89 87 79 82 94 92 84 80 78 73 77 86 82 97 100 96 85 97 98 95 96 96 88 80 68 63 44 44 46 67 80 80 83 95
98 99 100 86 88 85 87 88 79 75 81 73 75 76 85 76 78 83 76 68 73 76 84 96 100 100 91 76 95 99 98 96 95 87 79 88 63 50 54 66 83 89 83 77 95

GFSSW_850_rhum_024.txt.gz
RH
86 76 86 87 100 85 82 74 50 64 55 52 46 58 92 72 79 99 96 85 73 70 71 70 65 62 57 54 68 62 38 35 32 30 25 30 28 28 33 29 30 28 28 34 31
100 96 81 86 94 92 83 79 54 49 56 47 44 62 95 87 87 96 89 84 81 73 80 73 64 61 53 53 58 47 43 33 26 27 30 28 33 32 32 28 27 30 32 36 35
98 99 75 84 83 100 85 85 73 47 55 44 43 65 94 86 98 84 90 85 84 86 89 78 71 59 52 57 53 48 47 31 43 41 42 39 41 41 32 31 28 27 29 37 40
78 96 99 88 86 90 88 81 81 48 52 53 47 50 94 90 78 83 81 81 79 94 90 84 73 60 51 49 52 55 46 46 43 50 54 46 44 45 39 31 28 39 40 42 40
100 80 97 100 86 83 98 82 81 54 58 62 59 48 95 95 78 77 68 76 77 99 97 86 70 60 54 51 57 53 41 51 50 58 53 49 47 43 40 39 41 42 45 44 40
99 99 94 100 98 89 93 94 79 64 65 68 65 66 78 76 73 74 73 71 89 99 98 87 79 66 57 55 54 51 56 53 54 51 50 49 42 41 40 39 38 39 37 36 38
86 96 99 100 99 98 92 100 80 67 68 73 71 72 96 62 52 48 56 73 83 98 96 96 82 79 71 64 68 61 61 47 45 46 45 49 48 44 40 39 36 35 33 35 34
94 95 81 93 98 100 93 100 83 70 77 77 68 75 75 59 56 56 70 85 94 89 97 95 88 81 72 65 56 56 56 56 42 48 47 50 41 28 34 37 38 37 36 33 33
93 82 83 82 96 99 100 100 88 73 84 91 83 81 70 65 60 56 68 86 84 76 80 91 86 72 70 59 59 55 52 56 48 40 41 49 46 36 48 45 43 39 39 40 42
79 84 83 84 78 96 98 100 97 80 91 100 97 88 81 71 66 62 70 82 78 73 79 75 63 56 53 59 59 48 61 50 48 40 46 47 46 38 40 39 38 39 39 40 42
86 90 87 94 95 79 99 100 100 99 100 88 87 76 78 76 69 72 74 73 73 72 69 71 78 71 54 50 46 53 56 56 47 44 50 46 42 35 33 35 35 34 33 34 34
91 98 94 94 98 76 97 100 85 66 87 95 87 87 85 81 74 81 74 63 65 70 63 73 84 53 49 50 57 59 64 62 48 42 50 46 45 37 33 32 31 30 27 26 26
95 97 83 89 97 94 92 100 81 52 59 84 94 88 85 81 68 75 76 69 57 67 66 64 58 51 57 62 64 58 64 62 63 52 47 50 45 28 22 22 24 28 28 28 27
97 86 99 98 100 74 95 92 91 59 91 76 84 78 86 79 66 76 71 64 67 65 64 64 52 61 62 66 59 65 45 51 58 64 69 48 57 32 25 25 23 22 23 24 25
91 99 100 91 94 98 79 78 100 87 94 66 87 89 79 65 69 83 75 68 66 64 63 66 67 72 74 65 55 62 51 54 56 64 67 58 83 36 32 32 27 22 21 21 23
94 96 93 88 89 77 86 98 100 98 81 89 87 92 87 72 67 85 78 74 63 59 60 53 59 60 58 54 54 58 61 63 61 75 91 56 69 41 28 24 23 21 21 21 21
96 86 94 94 89 70 99 100 98 92 66 93 83 84 73 84 77 70 80 88 77 96 92 70 64 58 58 68 62 66 87 75 84 93 63 35 50 43 26 24 23 21 19 24 25
98 78 78 84 85 91 99 99 95 66 67 62 67 75 75 67 68 71 83 89 65 70 72 75 73 65 70 70 58 72 69 68 64 50 40 40 59 33 22 23 23 26 28 39 42
93 97 91 90 92 95 98 98 79 56 63 68 70 80 85 66 68 74 76 72 66 69 83 81 71 56 60 55 59 79 94 58 79 58 70 44 32 25 22 24 24 26 38 43 48
99 99 94 90 88 99 94 100 58 60 57 57 74 62 79 76 73 67 68 53 57 53 54 69 82 56 61 66 65 70 57 89 93 81 66 40 34 33 26 25 26 32 35 44 51
100 100 87 98 94 99 100 92 77 60 56 58 67 70 64 72 66 67 60 54 52 58 58 60 67 69 84 82 62 86 95 98 72 76 64 50 33 19 23 21 25 34 42 53 59
100 100 100 100 97 99 100 70 68 67 70 64 54 56 60 64 68 61 62 56 53 59 73 53 69 80 74 43 44 43 59 66 94 83 86 84 63 23 27 34 41 36 43 54 66
99 100 98 99 99 100 94 81 77 70 69 63 64 57 56 62 71 58 62 55 60 58 58 57 88 87 68 69 55 73 60 56 83 85 93 86 56 24 25 29 27 38 40 44 58
98 100 99 97 96 77 78 87 85 74 66 66 64 61 61 64 59 70 67 59 61 57 61 57 75 81 68 63 70 100 79 76 98 95 69 67 57 38 31 31 26 26 28 41 60
100 99 99 100 86 62 66 70 73 73 72 66 72 66 65 72 74 76 65 60 65 65 62 66 100 90 81 70 75 88 86 83 99 86 88 55 47 37 33 34 30 30 44 60 71
98 100 95 82 76 60 61 64 68 76 68 75 66 66 67 76 70 72 69 66 59 62 65 69 90 97 94 69 75 99 94 95 96 96 94 75 66 43 38 38 39 44 69 80 82
99 100 100 80 75 63 62 58 64 65 70 68 64 64 68 68 66 73 75 62 55 65 70 78 99 100 95 70 82 94 98 90 92 92 90 94 60 42 46 47 66 83 81 83 77

GFSSW_850_rhum_027.txt.gz
RH
92 99 99 83 88 95 99 84 77 58 38 49 50 48 72 91 74 76 95 81 79 76 70 73 63 56 52 46 46 48 38 33 28 21 19 15 19 20 21 21 21 20 20 32 38
77 95 100 99 87 88 98 93 79 79 46 48 49 45 60 92 96 93 87 86 78 70 77 69 57 54 47 43 46 44 39 30 18 16 19 18 23 21 23 23 20 24 26 32 40
95 96 93 100 98 91 90 99 80 81 55 51 46 43 75 88 98 86 89 81 80 80 82 65 53 51 44 42 41 40 40 23 21 29 29 25 23 28 27 26 20 20 23 28 33
98 98 98 91 100 99 92 96 87 80 65 54 48 43 81 88 81 87 82 84 82 85 81 68 58 49 41 44 41 41 33 30 27 32 40 36 31 28 28 28 22 23 25 29 34
85 98 100 95 92 99 94 90 99 81 73 55 58 47 89 91 82 79 76 78 86 93 86 67 56 46 43 34 33 40 37 30 35 38 41 42 38 33 32 32 30 30 30 35 35
89 92 94 97 97 99 100 92 99 84 76 62 61 59 87 73 71 76 75 77 80 94 94 77 62 48 45 40 43 38 38 36 39 38 40 40 36 34 32 31 31 31 31 31 31
87 91 88 89 82 99 100 99 95 94 75 73 67 67 84 60 62 65 70 75 87 87 97 86 77 65 56 48 49 51 52 43 40 40 40 40 43 39 34 30 28 27 26 27 28
90 88 90 82 75 91 100 100 100 98 81 76 72 93 75 71 74 56 67 81 89 91 92 91 82 77 69 59 48 50 46 53 31 33 34 39 43 22 25 27 28 28 28 26 25
93 91 75 81 81 79 81 100 97 100 83 84 84 87 64 66 60 66 68 75 75 86 95 99 89 76 73 59 59 50 51 42 36 32 34 42 43 27 32 36 28 28 28 28 27
89 81 82 89 87 95 68 90 95 99 92 98 98 88 72 65 70 66 67 73 67 77 82 81 71 73 62 67 62 44 46 40 38 29 36 40 39 30 29 31 32 33 32 30 30
87 84 83 88 93 91 95 85 99 99 100 92 89 64 70 73 74 70 72 73 65 65 61 61 67 68 49 43 39 37 43 42 34 30 36 37 35 31 27 26 27 28 28 29 29
93 92 84 82 86 95 93 100 99 100 96 83 82 77 72 68 68 68 70 65 64 67 60 70 76 46 38 39 43 46 49 47 37 34 38 38 38 30 27 26 26 26 25 26 26
92 93 92 92 67 91 98 96 94 100 88 86 78 71 79 76 57 68 66 60 60 61 66 68 52 43 47 49 55 49 52 49 48 39 37 40 39 24 20 20 20 24 26 26 25
91 89 91 99 99 87 95 90 97 100 98 88 86 72 80 71 63 64 64 56 53 56 56 59 43 48 51 55 49 56 38 41 44 52 55 40 50 29 20 19 18 18 19 20 22
89 90 99 91 98 92 92 92 81 100 96 70 70 68 71 60 64 70 64 61 54 51 54 58 55 57 60 51 45 54 44 49 49 55 64 51 64 34 23 25 21 19 19 19 20
92 88 90 91 86 93 93 90 100 99 96 85 85 78 75 56 62 67 66 65 52 48 49 45 47 49 51 50 48 51 51 54 53 59 80 46 39 30 21 17 15 15 17 18 17
92 84 77 98 88 94 97 85 99 96 61 95 81 75 70 68 65 69 78 79 68 91 86 61 54 48 46 56 51 55 68 69 79 90 65 27 38 32 19 18 19 18 18 18 20
90 90 89 99 86 81 100 99 95 80 61 54 67 70 79 67 63 63 71 80 57 53 61 74 74 52 55 57 59 65 61 60 58 47 39 28 41 30 17 16 18 19 19 20 21
89 98 99 90 87 91 99 98 97 54 58 68 68 81 95 65 69 64 63 68 57 53 74 64 69 46 53 48 50 66 86 52 66 50 61 38 28 21 18 17 16 16 20 22 29
98 99 99 93 94 97 99 100 66 48 49 54 71 61 75 73 66 62 69 51 54 45 41 58 73 48 52 52 51 57 53 84 90 79 60 36 30 28 20 18 16 17 18 23 33
100 98 99 94 97 96 100 98 60 48 46 49 55 58 56 66 59 59 60 47 43 46 49 51 56 67 66 69 56 71 81 73 55 81 65 57 38 19 22 23 21 21 27 33 43
98 100 97 93 99 100 99 94 53 57 56 49 44 48 54 52 56 55 51 45 42 42 59 50 57 78 64 38 37 39 59 58 90 68 76 81 64 26 22 23 24 24 30 36 38
98 100 99 98 99 100 90 83 62 59 55 51 54 46 44 50 57 48 46 48 45 48 51 51 78 81 73 56 43 55 50 47 66 77 93 90 59 24 23 25 24 24 25 27 31
98 100 98 95 87 69 90 89 75 62 57 50 53 44 47 50 49 52 56 54 50 47 58 47 60 79 68 62 68 99 74 64 94 97 72 64 55 40 34 30 32 31 30 26 25
98 99 99 97 76 59 69 77 72 62 57 53 58 52 51 57 55 58 52 55 56 55 54 54 100 86 72 63 65 77 76 74 94 95 98 70 63 48 40 36 34 34 31 32 44
98 99 97 74 62 53 61 72 57 62 51 58 56 55 53 57 57 66 54 52 53 56 59 61 92 90 87 56 59 84 64 77 95 95 96 94 94 69 55 44 38 38 39 48 51
98 100 100 76 54 50 53 53 57 50 63 58 52 54 58 58 63 57 63 63 55 61 65 76 99 99 83 63 75 85 95 96 96 91 89 91 66 52 52 59 73 78 76 71 74

GFSSW_850_rhum_030.txt.gz
RH
96 91 88 96 98 92 95 98 96 84 75 51 46 53 50 62 85 89 93 76 80 87 65 82 71 59 52 49 41 40 55 50 41 32 26 16 17 18 19 20 19 19 19 32 52
92 93 93 88 100 99 93 94 98 94 78 70 45 51 46 80 90 99 62 85 88 82 73 72 62 56 51 48 41 50 62 51 30 23 24 18 17 19 21 21 22 21 25 32 38
92 90 96 100 100 100 100 97 97 99 80 73 48 50 43 90 98 86 74 80 86 78 69 74 58 50 51 43 41 44 54 34 27 22 27 33 30 22 26 29 23 20 22 26 35
91 92 87 99 98 96 100 98 93 99 91 76 48 49 46 97 81 86 75 74 77 78 92 72 60 50 51 50 40 45 36 35 33 28 33 38 32 32 28 27 26 26 23 28 30
92 93 92 91 91 95 95 100 98 94 93 79 49 54 66 94 84 83 68 85 86 88 92 73 56 51 51 38 38 42 38 32 31 32 35 37 40 42 38 32 28 28 29 28 33
91 94 91 91 95 85 96 99 99 94 100 80 52 62 69 74 66 79 71 75 82 84 85 75 55 48 42 38 38 33 36 37 35 32 36 38 40 40 35 33 33 32 31 30 30
93 92 94 92 95 79 78 93 100 98 99 86 60 66 81 71 62 66 73 65 75 78 84 80 67 60 52 47 46 44 55 46 42 40 41 38 46 44 37 35 31 29 29 30 30
65 84 94 90 88 78 85 80 99 100 99 93 71 83 79 71 69 63 61 65 77 79 80 83 80 70 68 58 48 55 55 70 39 39 37 41 57 37 31 34 34 32 29 27 26
81 77 91 75 80 81 84 78 79 93 99 98 87 94 71 70 66 68 62 68 76 84 88 94 82 75 69 65 66 53 69 56 45 34 34 41 51 37 32 29 34 31 28 28 27
77 76 85 77 72 86 82 75 54 88 98 99 93 92 74 67 60 66 62 69 70 88 100 91 76 72 70 74 82 63 58 53 48 36 37 44 46 36 31 30 30 33 32 30 29
77 79 91 85 81 83 83 84 73 99 100 92 91 62 63 64 66 61 66 71 62 74 73 83 83 88 68 62 57 51 47 46 40 31 39 41 39 34 29 28 29 29 29 30 30
78 84 92 91 91 94 89 100 87 96 99 84 84 63 68 68 66 63 69 68 66 82 61 73 81 55 51 49 49 46 52 54 43 34 38 42 44 36 33 30 28 27 27 26 26
82 91 86 87 97 94 93 75 94 96 99 91 87 69 71 64 62 64 68 62 63 68 69 62 52 44 49 50 52 54 57 56 52 42 40 43 45 37 26 27 27 28 26 25 25
93 91 91 98 98 92 98 90 100 95 100 98 81 69 74 66 60 64 64 59 60 71 67 67 48 45 52 57 50 63 42 46 49 57 68 48 78 42 31 26 22 21 20 23 25
87 86 90 91 99 100 92 98 99 99 98 91 81 70 72 59 62 66 63 55 57 56 57 62 54 58 59 52 46 53 49 51 54 63 68 60 81 54 28 29 24 22 18 19 20
86 85 86 95 96 98 100 87 87 96 97 99 83 74 74 61 60 63 64 59 52 50 50 52 44 47 51 46 49 51 51 54 59 66 89 68 61 50 26 23 22 22 19 19 19
87 85 82 100 96 95 96 84 94 97 90 99 90 74 65 68 69 66 74 76 77 92 90 62 57 49 48 59 53 61 67 93 96 97 89 35 58 40 23 21 23 21 18 18 18
89 97 95 99 99 93 84 81 96 96 98 57 72 71 70 62 69 70 79 83 61 56 75 86 78 59 53 58 65 67 64 90 80 85 67 41 60 38 23 20 17 18 18 18 18
94 97 98 95 95 92 97 84 79 70 55 74 75 80 87 63 68 71 75 71 57 56 77 77 66 47 51 48 52 66 84 54 77 60 84 54 33 25 22 22 20 19 17 19 19
97 94 100 89 79 81 99 98 99 48 51 57 81 62 83 71 67 68 71 53 52 48 46 60 73 50 54 46 46 53 52 90 92 97 80 50 40 39 28 26 24 23 22 21 21
94 97 99 92 89 95 100 100 69 48 48 50 57 58 57 67 59 63 60 48 45 48 46 54 59 75 69 71 69 69 76 70 67 81 91 75 51 26 32 29 28 26 28 34 39
98 97 93 88 97 99 100 97 66 55 47 43 42 45 53 55 58 54 55 48 42 44 56 52 55 90 79 47 49 52 65 63 88 78 80 89 66 29 31 28 28 28 25 30 34
98 97 97 97 96 100 95 80 70 55 49 48 48 44 43 52 63 49 50 45 42 46 55 53 77 91 80 59 48 59 54 55 63 73 85 92 65 27 30 32 31 30 30 25 27
96 99 85 92 81 84 94 90 78 57 54 46 47 42 46 50 47 55 60 52 45 47 48 47 65 87 93 81 84 97 81 64 73 98 79 77 66 48 43 46 54 49 35 34 31
96 98 97 94 82 66 70 81 63 60 53 49 54 47 48 53 54 53 54 62 52 55 49 57 96 85 80 68 68 76 76 72 92 92 98 79 80 70 67 71 65 62 43 38 41
99 99 99 71 58 57 71 92 58 55 53 55 58 52 48 51 59 55 50 55 62 59 61 60 98 95 87 65 68 80 68 69 81 95 96 96 95 66 58 72 77 81 76 74 62
98 100 100 71 60 54 56 53 55 53 62 54 51 52 65 69 65 58 61 61 58 61 67 81 96 98 89 69 80 91 76 86 91 85 92 96 84 77 72 67 74 89 88 86 80

GFSSW_850_rhum_033.txt.gz
RH
93 94 94 98 100 98 99 99 99 100 94 83 69 38 50 51 54 88 85 57 56 74 75 73 66 54 55 54 47 42 64 70 57 50 39 24 25 19 19 18 19 21 34 46 55
91 93 93 91 97 100 99 99 100 96 99 91 75 43 50 50 64 91 60 67 69 70 84 80 76 62 58 52 50 53 71 65 42 39 35 27 32 26 21 21 22 22 33 50 53
88 88 90 92 88 99 99 100 98 99 99 97 78 48 52 52 90 59 50 67 96 84 80 72 68 61 59 53 50 49 72 50 47 36 32 37 35 33 28 28 22 21 29 30 27
94 90 90 98 89 93 98 99 98 98 92 99 83 54 51 80 89 84 78 69 94 81 81 67 74 70 60 63 49 58 45 44 40 37 36 39 38 42 38 32 32 28 27 28 40
90 87 94 94 96 90 95 86 96 98 98 99 88 61 58 95 81 80 68 79 98 85 73 78 77 65 61 55 50 52 46 40 38 35 36 35 41 43 42 38 30 29 30 30 30
84 81 91 93 93 91 91 81 82 91 100 99 94 73 66 94 51 76 70 77 84 88 79 82 70 59 51 51 49 38 41 44 42 42 41 40 40 39 41 34 34 31 30 31 32
91 77 71 94 91 87 85 85 77 92 99 96 97 80 76 61 68 79 72 65 73 81 82 71 76 58 55 51 48 47 55 54 50 46 46 39 52 51 36 33 35 34 30 29 30
80 80 73 77 80 74 78 84 81 64 94 99 98 87 85 52 62 65 70 67 76 83 80 74 83 65 64 55 50 56 58 77 55 45 44 45 57 44 36 38 39 36 34 29 28
79 76 76 74 73 75 77 76 62 54 68 99 99 88 80 67 64 65 58 65 77 76 77 88 84 76 64 69 67 61 80 75 62 42 45 51 57 43 38 37 38 36 35 34 32
75 74 76 74 86 80 82 68 48 49 58 95 94 92 86 74 68 69 56 70 78 86 94 94 88 88 86 79 93 77 76 67 64 42 41 49 57 47 36 35 34 32 30 34 33
76 74 76 85 87 92 88 78 63 91 70 98 92 78 60 67 64 64 62 68 72 90 89 88 89 94 88 77 63 58 63 60 49 39 40 46 49 42 35 33 33 31 31 28 29
93 86 92 85 89 93 99 99 79 98 94 99 79 78 63 63 64 64 71 66 74 88 75 91 92 68 59 60 65 66 62 61 51 41 43 49 47 39 36 35 33 32 32 29 28
92 90 86 84 84 94 100 99 97 86 100 97 88 81 68 65 65 63 70 66 75 81 74 81 58 62 59 57 57 56 62 61 61 51 48 53 57 46 37 34 33 32 31 30 28
93 91 85 85 92 92 91 91 96 78 98 100 95 81 67 64 68 66 68 62 64 75 68 66 48 48 55 61 55 66 51 54 57 65 77 55 88 67 39 33 28 29 30 28 27
85 78 78 88 97 99 97 90 98 78 96 98 96 75 64 69 67 70 65 56 65 65 69 78 61 58 58 57 51 61 53 56 59 68 71 68 80 69 51 37 32 27 21 22 21
82 83 87 95 97 96 100 90 78 89 94 100 89 79 83 67 64 67 68 56 51 58 58 56 46 51 58 48 53 51 54 56 63 75 98 74 75 65 42 29 23 24 20 18 20
99 99 97 95 91 89 98 75 87 96 96 100 92 75 75 75 73 71 75 75 79 93 92 64 61 51 50 62 56 62 70 95 93 92 90 57 81 63 32 26 24 26 19 18 20
90 86 92 90 96 98 78 98 88 89 100 84 73 73 84 70 76 74 79 84 69 64 89 88 86 66 55 64 74 76 68 90 87 98 84 54 72 51 32 26 22 18 17 17 17
82 97 91 98 92 90 92 92 93 99 92 91 79 80 92 70 77 75 78 75 66 62 78 89 77 56 54 49 57 73 88 61 81 73 93 69 47 31 24 25 26 24 23 22 18
89 96 99 95 91 94 98 98 100 92 70 59 96 72 91 75 80 79 76 62 58 55 53 62 83 63 56 48 50 57 59 86 94 98 92 70 56 42 33 32 30 30 36 37 28
81 90 98 97 96 97 100 100 88 74 58 55 68 69 65 71 72 71 76 58 52 57 51 50 64 78 62 69 75 71 70 66 74 90 96 98 66 35 32 34 33 33 31 33 37
85 98 90 94 94 100 100 99 89 72 59 51 49 59 61 64 70 60 72 56 45 48 61 51 72 97 80 60 58 63 75 72 94 74 92 93 70 29 31 33 34 34 38 50 43
96 93 86 98 99 98 88 92 80 60 54 51 50 47 52 59 63 55 59 48 46 50 57 56 73 92 77 69 60 74 68 65 71 80 86 90 68 35 35 36 36 40 53 66 68
92 93 81 96 82 89 92 87 74 55 58 50 50 48 50 58 52 60 67 53 47 55 49 48 77 81 87 79 81 88 78 69 78 98 80 75 64 50 46 47 52 64 72 65 70
90 99 98 97 83 79 78 86 73 66 54 51 55 49 53 60 53 63 67 62 54 56 53 62 75 90 80 76 77 79 78 75 85 78 97 67 68 61 62 73 75 84 80 78 83
97 97 96 98 67 74 80 83 72 72 68 65 65 62 60 64 62 59 63 67 70 61 60 66 86 96 90 78 82 89 76 74 75 75 77 77 90 66 63 81 73 80 86 81 79
98 97 99 84 75 70 70 65 62 63 60 60 56 72 77 82 72 65 55 60 62 72 73 77 95 99 98 72 85 88 76 73 78 79 83 98 88 72 77 80 94 98 100 98 86

GFSSW_850_rhum_036.txt.gz
RH
95 94 93 98 93 89 98 98 98 98 100 100 89 78 49 55 59 65 75 31 43 79 72 74 69 64 54 58 51 46 70 78 61 53 41 29 31 26 21 21 21 24 31 24 43
90 96 99 91 90 92 90 100 98 97 98 98 97 83 61 58 57 61 41 50 55 76 66 83 80 71 65 58 52 57 78 68 49 44 42 33 34 33 26 22 24 27 32 46 55
91 89 89 86 93 87 86 95 96 94 98 96 100 90 65 67 78 42 33 50 59 82 71 82 79 70 67 57 55 57 76 54 50 46 42 39 38 38 33 30 29 36 47 55 57
86 85 83 84 93 90 89 90 88 96 94 97 94 97 65 71 86 84 64 55 70 71 67 77 81 75 68 68 54 60 51 47 46 41 44 40 36 43 39 32 32 34 36 52 60
81 88 93 84 81 88 93 93 91 80 89 98 97 100 70 83 78 81 79 70 98 83 87 76 81 74 70 63 58 59 51 45 41 40 43 38 42 44 43 36 32 37 34 33 32
78 83 84 72 80 76 92 92 98 81 88 95 99 100 77 89 35 74 73 74 93 88 85 77 77 68 57 56 62 48 47 45 43 44 45 43 43 39 41 36 33 33 32 32 32
78 81 80 71 78 75 70 92 78 82 72 84 96 100 97 59 60 69 73 76 77 83 81 66 71 66 58 58 49 48 56 53 50 47 48 42 49 55 38 32 33 31 30 27 28
94 77 76 72 76 78 74 79 73 73 70 69 92 100 94 56 72 78 72 73 79 82 80 67 76 74 65 56 54 57 61 68 50 45 42 46 55 44 37 36 37 34 32 29 25
89 80 76 75 77 77 80 69 70 64 58 57 80 100 85 58 64 79 75 71 76 83 86 82 85 74 64 70 70 63 76 75 66 50 49 56 59 45 34 38 39 36 36 35 30
75 79 75 76 81 79 81 83 66 60 51 69 75 96 91 75 58 66 65 67 80 84 94 94 92 91 85 80 91 79 79 71 69 49 47 57 64 52 43 44 42 38 35 33 32
89 92 88 92 82 86 94 98 80 90 80 77 95 90 71 62 67 63 60 67 86 85 95 90 96 96 81 70 63 61 63 67 56 42 45 48 51 46 37 37 36 33 34 31 30
92 90 86 82 83 82 99 98 97 93 91 65 91 95 74 69 72 68 64 71 80 97 89 87 92 76 76 83 77 72 63 66 55 45 45 52 53 43 39 36 35 34 32 32 30
90 81 83 83 81 93 95 95 95 90 97 85 95 98 69 62 70 75 67 70 80 88 85 83 71 66 74 74 75 59 64 63 63 56 49 56 41 41 39 35 32 31 32 32 30
81 73 70 74 90 98 88 97 88 90 98 98 96 91 68 62 70 65 70 65 70 86 70 75 48 72 77 79 59 69 53 56 61 64 80 57 83 65 48 43 35 29 29 28 27
87 82 82 97 100 97 87 83 87 94 96 98 96 77 71 70 69 77 66 58 72 71 66 73 65 61 68 62 54 65 53 56 58 70 75 71 83 66 51 45 33 30 22 19 18
95 90 92 97 88 93 89 92 93 93 96 100 92 80 80 68 70 79 67 54 57 64 58 58 50 53 55 56 54 54 56 67 75 79 94 73 76 63 46 33 26 22 20 19 17
86 79 84 93 92 87 99 87 83 93 86 100 97 74 75 80 80 76 75 68 89 98 100 66 63 52 52 68 60 59 69 88 89 94 87 63 84 71 47 35 27 30 23 19 18
95 84 96 90 95 99 77 95 87 81 92 93 78 76 90 72 78 82 76 82 67 74 88 89 91 63 54 63 73 68 66 83 72 95 88 63 81 48 40 34 25 24 23 22 23
83 77 84 97 86 86 90 95 95 98 99 84 70 92 88 79 84 80 77 75 68 62 79 87 77 58 56 54 60 75 86 63 82 75 94 74 58 34 29 28 29 30 37 36 36
74 77 92 99 97 94 98 98 99 98 76 67 96 78 96 84 88 80 74 60 60 59 54 66 91 67 56 51 55 63 64 89 93 99 84 72 67 48 32 35 35 37 36 35 36
65 76 90 89 92 98 100 100 96 80 61 62 85 73 75 75 72 68 68 61 55 56 50 53 72 76 61 67 75 74 74 72 80 87 94 97 71 42 33 34 36 41 36 37 44
78 94 82 94 98 98 100 97 94 84 71 62 58 64 64 67 70 66 75 66 51 54 64 51 79 96 85 60 58 65 73 73 91 72 95 93 80 39 39 38 40 37 44 49 60
83 82 82 90 99 97 85 86 80 73 59 51 57 52 55 67 71 58 62 50 51 55 63 56 80 93 78 70 68 77 73 70 74 83 94 92 74 39 42 39 42 54 66 74 77
86 93 76 89 92 89 94 91 78 54 61 52 57 52 54 57 51 71 64 59 51 53 50 52 78 78 88 75 79 88 78 74 77 99 87 82 62 51 46 52 56 73 84 85 81
88 99 100 98 84 82 81 84 76 81 62 53 52 50 60 65 65 72 67 61 59 58 60 61 83 91 81 77 79 79 78 80 88 75 93 64 71 62 55 56 74 87 86 88 85
95 98 96 97 86 71 80 77 77 76 70 66 75 61 55 74 71 72 71 67 64 60 64 68 93 94 90 76 88 92 80 76 74 73 72 72 75 56 58 70 92 95 97 96 96
96 97 98 83 79 76 73 63 66 60 64 72 64 68 80 81 73 66 52 51 59 69 76 74 95 98 98 72 88 98 83 76 78 76 74 92 77 70 74 84 95 100 95 77 79

GFSSW_850_rhum_039.txt.gz
RH
90 96 93 92 90 89 90 93 97 99 93 98 100 100 88 66 67 92 86 33 32 66 50 87 84 76 73 59 55 50 74 83 58 53 43 34 33 29 27 24 22 24 26 31 34
88 88 86 87 87 82 89 78 92 97 98 96 97 99 96 86 64 90 29 35 35 94 86 72 72 78 75 61 55 59 81 70 54 48 42 38 38 38 33 30 24 28 34 45 52
81 80 82 78 84 85 84 95 88 89 98 92 99 98 100 96 79 42 23 32 42 90 86 86 81 81 70 61 59 63 73 54 52 44 46 43 42 36 39 38 28 32 61 62 64
92 93 92 77 75 78 78 79 90 94 90 94 98 98 100 90 69 83 53 28 54 92 90 89 88 74 74 73 57 64 57 53 47 42 45 43 39 43 38 36 33 36 44 66 67
91 91 75 74 74 84 83 75 87 92 92 79 95 97 100 94 55 84 90 48 78 93 85 96 90 74 74 67 60 62 54 50 45 43 46 43 44 46 44 34 34 35 36 36 45
95 90 75 76 80 80 80 76 76 94 94 73 98 100 100 87 61 65 79 81 86 84 84 94 86 72 64 61 67 55 52 50 46 44 44 46 46 41 41 35 33 37 34 34 33
94 81 91 74 75 77 79 73 69 69 75 82 94 100 100 83 55 40 77 77 90 88 75 86 76 72 64 59 54 54 55 54 53 48 51 46 53 60 41 37 36 33 33 30 29
76 77 76 71 74 77 74 68 75 75 73 73 93 100 98 77 62 55 79 87 80 85 79 76 79 73 65 59 57 63 61 73 51 51 46 44 57 43 36 38 38 34 30 27 24
87 96 91 73 76 76 74 72 72 66 63 69 90 95 93 82 69 80 85 79 83 89 86 77 81 76 68 72 75 65 84 75 60 49 48 58 63 45 38 37 39 34 29 26 27
84 93 90 94 94 90 89 90 73 70 60 60 86 96 95 84 59 82 77 76 82 88 100 88 86 92 85 78 87 83 72 71 69 49 53 63 70 54 45 45 47 43 39 37 36
94 92 93 86 82 80 85 84 80 90 76 62 80 88 88 71 60 77 76 72 82 88 98 99 98 93 87 78 62 65 68 69 60 46 48 53 53 47 39 39 40 36 34 36 36
87 95 82 82 81 79 88 95 93 95 88 66 97 86 88 76 77 70 68 71 86 92 90 96 94 85 76 78 76 74 72 74 58 49 48 56 57 45 40 38 36 35 33 31 31
96 88 96 79 81 85 87 89 99 92 94 84 77 92 86 75 70 72 65 77 83 96 87 84 82 82 76 86 82 80 70 67 64 57 52 60 52 42 35 35 32 31 32 31 31
96 92 91 90 86 89 78 93 83 92 98 98 94 88 90 70 76 70 66 73 78 90 83 78 60 76 84 87 76 72 54 57 60 65 79 59 82 65 45 45 39 33 28 26 24
82 83 80 88 96 86 96 87 81 98 88 98 96 90 71 66 73 70 71 62 75 82 78 92 71 85 84 75 56 64 54 58 60 73 70 70 84 64 46 40 34 30 26 25 20
84 83 82 78 89 95 89 76 93 96 96 99 97 94 78 73 79 78 77 60 62 67 59 72 54 53 56 59 52 56 58 66 80 76 90 68 71 59 40 33 36 31 24 25 22
85 87 79 79 82 85 80 88 94 96 99 100 98 75 73 79 84 78 75 77 92 98 99 71 66 54 56 68 59 58 67 83 74 96 78 71 80 58 45 40 36 40 33 38 35
84 78 82 71 74 80 84 87 92 95 98 89 75 72 85 75 84 77 82 89 68 76 94 93 92 63 54 64 72 65 65 78 58 87 86 69 85 49 39 35 33 41 37 33 34
81 80 96 87 90 94 92 96 98 98 100 86 72 89 94 86 86 95 82 84 67 61 78 84 83 59 56 58 59 76 85 63 85 78 95 74 57 33 35 38 36 36 34 36 40
70 75 81 90 91 84 90 98 100 89 64 73 95 82 97 94 92 99 80 62 63 59 55 65 90 66 58 53 58 62 65 86 93 66 76 60 68 46 36 35 39 43 39 41 50
65 69 80 96 92 95 99 100 92 78 75 70 83 79 79 80 76 73 70 60 52 59 54 62 74 77 65 68 78 74 80 82 81 83 85 91 56 48 34 40 44 44 45 57 68
69 86 81 91 98 99 100 98 91 84 74 59 61 64 69 69 65 65 67 61 54 55 62 56 80 95 72 62 59 64 71 77 83 75 98 87 79 44 46 39 43 46 56 64 74
73 78 76 84 97 99 82 88 87 85 70 55 58 52 57 66 68 64 66 50 55 56 63 56 79 92 83 69 68 76 73 71 77 83 96 92 73 42 47 43 44 53 67 83 86
74 92 63 76 92 92 92 87 73 61 59 56 59 53 56 59 57 73 65 65 56 52 52 52 75 76 84 70 80 91 81 77 79 99 88 85 74 47 47 45 48 70 90 86 87
84 98 99 98 85 86 80 81 81 88 63 54 54 54 57 70 68 74 66 61 60 62 62 62 83 90 79 74 79 77 76 84 87 76 87 66 69 54 48 49 55 91 89 90 88
95 97 97 98 91 80 78 76 76 75 72 67 61 63 59 72 71 79 69 65 60 58 68 67 94 94 94 77 87 95 82 81 80 78 79 72 72 49 48 60 77 90 95 91 81
93 98 94 88 86 79 72 65 66 64 69 75 66 71 82 82 76 62 51 52 55 68 76 73 96 93 98 78 90 91 86 78 71 70 63 78 63 54 69 75 86 94 97 86 82

GFSSW_850_rhum_042.txt.gz
RH
89 90 92 88 88 87 82 79 88 92 90 99 100 99 99 99 92 85 90 66 35 64 75 74 93 84 80 63 55 58 78 83 59 56 43 35 34 32 30 30 26 24 25 31 33
84 83 89 92 86 76 82 79 94 86 90 97 99 93 95 100 97 93 51 35 35 74 96 82 99 90 80 61 59 61 84 74 52 46 42 40 39 38 35 37 30 26 48 38 41
90 94 79 84 92 71 77 82 77 74 91 85 94 98 93 100 100 91 55 32 31 79 98 79 93 89 77 67 63 65 73 55 52 44 44 46 45 39 39 39 31 32 47 67 64
86 92 90 96 95 82 78 79 80 80 80 91 91 100 98 100 87 70 57 34 29 88 100 91 87 85 80 76 62 66 59 51 45 47 48 47 42 43 40 36 34 34 36 59 77
94 94 94 86 95 80 80 79 81 78 93 94 92 96 96 100 82 96 94 78 35 94 98 90 89 80 75 70 63 64 56 52 48 48 48 47 46 47 43 37 35 34 34 35 40
91 92 91 70 89 74 77 76 80 76 82 92 81 95 99 98 76 67 85 94 43 87 96 96 84 72 65 67 63 59 55 53 50 48 47 49 48 45 42 37 35 35 33 32 33
89 88 92 80 78 75 73 75 76 71 70 73 83 95 99 90 79 84 52 86 62 83 97 93 84 67 65 63 57 54 59 56 56 51 51 48 56 62 42 39 38 35 35 34 31
93 81 80 86 83 72 73 72 74 76 79 72 82 90 97 81 81 75 77 85 71 83 85 80 83 73 64 60 59 66 60 76 54 56 49 46 59 44 37 38 38 36 34 32 28
85 89 88 91 92 79 82 85 75 76 78 74 74 86 91 84 75 73 93 83 85 85 81 73 74 76 70 74 80 70 88 80 62 54 50 58 65 46 41 43 44 38 35 34 32
93 96 84 82 84 81 82 80 70 69 65 65 72 85 87 84 79 76 96 81 89 91 90 84 78 90 87 77 89 82 74 72 71 49 59 64 71 53 38 40 47 44 40 38 38
86 89 80 81 78 80 74 75 71 83 76 63 83 81 83 82 80 81 84 87 85 99 96 88 98 92 81 75 63 70 70 69 63 49 50 59 59 52 42 41 40 36 33 32 34
96 95 97 73 93 76 79 80 88 89 86 66 70 85 98 88 76 74 72 77 86 94 97 96 90 75 74 70 72 73 77 76 62 51 50 58 59 49 42 40 38 37 34 32 31
96 99 98 94 80 74 80 90 95 96 90 85 77 97 95 88 84 78 70 80 84 91 88 95 91 79 74 80 82 81 77 73 70 57 54 65 59 44 37 35 32 29 30 30 29
80 84 98 96 92 87 86 91 85 92 89 85 81 92 92 84 89 73 67 78 82 86 81 78 85 78 83 87 83 86 53 58 60 65 80 62 81 61 47 42 37 31 29 30 28
81 82 73 90 95 88 91 83 78 91 77 81 93 92 89 71 86 73 67 70 82 87 79 92 88 94 90 83 79 84 54 60 63 73 69 67 79 55 41 33 32 33 42 40 37
80 81 81 87 87 88 75 76 79 94 96 100 97 92 91 78 81 76 85 68 66 80 76 79 59 60 69 70 61 59 58 67 78 74 88 66 65 43 36 39 41 39 44 38 38
78 78 74 74 85 80 81 85 90 94 96 100 100 90 77 84 82 78 92 84 95 99 100 97 86 56 56 72 62 57 70 87 70 82 75 72 75 52 46 42 40 41 41 40 44
76 78 73 71 80 83 93 92 89 89 98 95 79 74 89 79 82 92 91 92 68 83 94 95 97 64 56 62 71 65 61 77 54 75 75 73 85 45 41 36 39 38 38 46 53
69 75 85 95 98 99 100 96 98 98 100 94 82 99 98 87 85 95 85 82 68 62 79 84 90 61 56 60 57 74 84 63 86 79 89 70 58 30 33 40 38 40 43 49 58
60 61 81 87 98 96 94 98 100 93 69 72 91 83 97 97 99 94 79 68 66 59 56 66 93 68 60 55 62 62 66 82 90 72 64 51 63 41 35 39 48 47 46 51 61
60 62 75 79 82 86 99 100 91 81 67 68 79 82 87 86 84 95 73 65 54 61 57 63 75 81 65 68 78 75 82 82 79 84 77 72 40 48 40 42 49 49 47 59 70
62 87 71 70 96 98 94 86 88 83 69 58 61 64 70 68 68 70 70 60 53 55 63 62 83 86 75 64 61 63 74 72 81 77 95 93 71 44 43 41 46 48 52 77 82
69 66 63 74 95 98 86 82 88 76 65 55 57 54 59 62 67 63 62 54 55 52 61 57 78 93 83 68 68 77 73 71 75 81 97 91 60 45 47 48 42 48 63 82 81
69 91 66 72 93 91 90 85 76 63 58 57 60 53 56 62 65 72 65 68 57 52 52 54 73 76 81 69 80 91 82 76 78 95 86 85 72 48 46 51 45 50 79 83 83
77 96 97 98 89 93 81 79 79 82 63 56 56 54 62 71 71 75 67 64 63 66 63 62 85 90 77 71 79 77 76 86 84 78 86 67 76 56 51 52 50 59 84 83 86
92 97 94 93 94 83 74 74 78 78 72 65 66 71 66 68 64 79 69 65 63 62 66 65 97 92 88 78 84 94 82 82 83 78 80 70 72 48 48 49 64 80 84 88 84
94 94 99 86 88 80 79 70 68 65 71 75 65 74 79 81 77 61 56 55 57 70 75 73 95 92 93 81 89 92 88 82 79 72 65 84 59 48 58 70 79 83 90 92 86

GFSSW_850_rhum_045.txt.gz
RH
80 86 79 82 89 94 95 83 77 86 84 83 67 69 90 98 100 99 96 86 36 72 81 45 100 87 70 57 51 58 67 68 56 50 40 35 34 31 30 31 28 25 28 29 36
93 74 91 93 89 86 80 86 76 78 89 78 67 62 96 91 99 100 91 67 41 70 100 78 98 97 83 65 56 61 72 66 49 44 41 38 37 35 34 37 30 30 43 40 32
93 86 90 84 94 87 93 96 80 76 79 82 91 77 89 99 97 94 86 76 54 44 93 95 95 92 79 69 66 65 64 56 51 41 39 44 45 40 39 38 32 32 45 60 56
89 93 92 92 95 96 99 84 85 76 80 86 93 96 94 97 96 76 81 68 68 60 91 100 99 90 82 76 65 67 61 52 44 48 50 50 44 44 41 34 35 36 35 43 71
93 84 91 94 91 86 81 76 82 78 80 78 84 91 87 95 90 87 98 80 94 70 95 97 98 82 76 70 66 65 59 52 46 48 48 48 47 44 42 36 36 36 34 34 38
89 87 80 91 79 78 77 76 76 74 75 76 81 79 92 98 87 83 77 93 95 88 89 94 89 79 70 69 62 60 54 54 50 50 48 50 49 47 42 35 36 36 32 32 33
93 79 86 86 85 93 77 70 73 74 71 70 82 85 94 94 84 86 86 68 75 95 87 91 76 68 66 68 59 60 66 58 55 53 50 48 53 60 39 39 38 34 35 33 34
95 86 88 92 95 93 74 75 68 70 78 79 73 88 97 90 82 82 84 62 94 96 89 87 75 66 62 59 63 67 61 73 54 56 50 45 54 42 38 42 41 39 36 36 29
94 92 92 80 89 82 82 74 69 70 77 82 77 89 86 90 90 83 87 84 87 91 82 84 78 73 68 72 78 72 84 78 62 58 54 50 62 47 45 44 42 38 37 36 35
95 99 90 87 68 75 77 68 66 75 71 70 72 85 80 87 78 73 81 98 96 92 82 82 77 89 86 78 85 81 80 76 63 52 60 64 68 55 44 42 41 37 34 34 37
98 97 85 98 79 82 70 67 71 81 83 68 74 67 75 86 82 72 85 94 77 87 93 85 94 88 81 70 62 65 71 71 64 51 52 60 60 51 44 43 42 39 36 33 32
83 90 84 92 81 80 76 81 93 86 77 72 68 79 83 99 89 79 97 99 98 92 92 97 88 70 72 66 64 68 75 75 63 53 52 57 57 47 42 43 42 40 38 35 33
84 82 77 88 84 68 80 96 77 84 81 82 79 98 90 95 92 82 88 94 90 88 93 94 78 67 68 76 76 76 78 77 71 56 54 61 56 46 38 36 33 35 34 30 32
78 80 83 85 80 86 90 88 85 89 90 81 83 93 86 92 93 78 80 79 85 96 88 97 92 75 76 76 72 92 58 62 60 66 73 60 68 50 44 35 36 46 45 44 42
65 78 76 82 92 97 97 80 84 79 89 74 94 90 93 87 83 79 74 71 86 81 79 94 92 90 90 82 73 76 55 60 64 71 68 66 66 43 37 35 38 44 43 48 51
59 66 66 68 76 83 82 78 83 86 96 99 92 95 86 82 85 81 81 71 76 78 77 82 65 77 87 75 79 58 58 66 72 69 82 63 63 35 36 39 41 42 43 52 59
65 64 64 72 82 87 95 95 87 93 93 99 100 84 80 92 84 82 92 87 92 98 100 96 91 60 80 90 65 60 80 86 69 82 76 72 73 47 40 42 40 42 46 53 60
54 66 82 86 94 94 99 89 89 95 98 95 93 83 96 86 86 90 96 89 69 87 96 94 99 76 57 70 93 66 65 77 59 60 60 71 76 42 40 40 41 42 50 54 62
52 60 80 87 92 99 97 95 94 96 99 95 81 90 94 89 87 93 99 80 71 65 81 90 93 62 61 60 60 72 79 59 82 77 77 56 53 33 35 41 41 45 51 55 65
58 63 78 86 87 92 99 94 99 97 72 70 86 82 87 91 94 96 89 70 69 60 55 67 94 70 64 56 61 62 63 79 83 73 59 41 49 30 35 43 46 46 49 55 73
52 60 65 74 70 75 99 100 88 78 68 66 82 87 78 77 90 91 73 69 58 62 58 64 74 84 65 69 76 73 78 78 71 74 55 44 29 41 40 45 49 46 48 64 72
49 83 63 62 81 97 100 92 85 78 65 58 62 68 76 72 71 74 68 66 55 55 64 62 79 93 79 65 62 64 74 68 76 73 89 84 50 40 39 43 46 44 48 58 75
62 55 59 62 92 98 83 78 86 73 64 56 58 56 59 64 70 66 63 57 55 53 62 60 79 95 85 68 67 77 73 68 71 80 98 79 40 44 47 45 40 46 53 70 80
69 82 61 66 91 88 90 82 72 64 59 57 58 53 58 64 68 71 67 68 58 57 55 53 73 72 76 66 80 92 83 72 77 89 79 78 59 46 41 49 48 50 54 80 85
81 96 97 98 88 94 83 79 79 78 64 55 55 53 61 71 72 75 69 72 67 67 61 62 86 88 74 69 78 78 80 81 83 77 80 58 70 48 49 50 50 52 75 86 86
92 90 90 90 93 88 75 73 77 77 84 63 65 66 60 66 62 78 72 70 70 64 64 69 95 91 84 80 83 92 80 81 78 74 76 71 70 47 46 50 54 76 84 90 85
89 92 93 89 89 82 80 73 71 68 76 78 72 74 78 78 76 64 57 56 61 70 73 73 95 88 86 79 86 92 87 80 81 78 67 81 61 51 52 60 70 85 88 87 86

GFSSW_850_rhum_048.txt.gz
RH
95 89 93 80 86 86 91 87 82 83 79 87 80 77 60 93 94 95 100 95 70 83 85 41 96 96 78 60 60 56 40 41 40 38 30 27 25 26 28 21 23 25 30 44 34
92 85 94 91 79 84 88 93 95 83 71 75 84 76 65 79 97 96 96 92 76 90 99 79 96 98 67 56 51 37 38 30 28 30 30 28 23 26 26 26 25 27 36 38 39
92 94 93 79 91 94 93 98 99 95 86 78 76 85 85 89 97 84 80 68 76 72 97 86 86 90 67 60 48 38 35 28 39 34 33 29 28 31 25 27 22 23 35 60 50
93 81 80 81 80 77 93 87 94 82 75 75 79 80 90 93 86 73 66 76 78 90 94 90 97 84 64 58 48 46 35 35 40 46 44 34 31 31 28 24 31 36 36 39 74
94 96 79 73 82 77 76 75 79 72 76 76 75 84 93 90 84 82 80 96 99 97 89 82 83 80 63 55 53 44 43 41 40 47 47 44 37 30 34 34 37 38 32 36 38
97 93 82 82 84 78 83 68 70 74 77 73 76 81 95 85 72 85 92 82 95 97 91 83 69 71 59 58 51 44 44 41 40 44 45 43 40 42 34 34 35 36 33 32 35
94 88 89 85 89 92 88 88 73 69 69 74 71 81 95 72 92 82 77 80 94 90 92 90 71 71 63 60 56 53 49 40 45 41 37 42 40 43 34 30 31 28 28 32 34
92 98 98 87 73 65 70 76 80 75 74 80 71 93 80 80 93 85 75 90 99 91 95 92 80 65 58 58 56 51 44 53 33 41 44 40 30 31 35 34 33 30 28 29 33
91 91 84 89 84 61 65 73 75 67 73 77 75 91 68 74 79 94 83 82 91 91 95 84 79 64 64 56 59 47 40 41 42 43 35 41 30 28 32 35 32 31 31 32 34
95 88 82 81 92 69 68 68 74 67 74 83 84 87 74 79 84 83 98 75 89 83 99 86 77 67 56 52 51 50 42 46 39 44 49 47 36 35 38 40 36 33 31 30 31
100 90 78 79 86 68 71 69 78 82 82 67 73 80 91 96 82 78 93 86 90 94 79 83 92 81 59 47 43 40 43 38 41 43 44 42 42 38 36 36 35 32 30 30 30
84 64 82 89 84 66 76 86 88 86 67 86 79 77 81 99 91 81 82 96 82 77 71 91 90 51 47 50 52 45 43 41 54 46 44 44 45 36 34 35 36 34 32 32 33
62 62 80 89 72 76 85 88 83 80 66 72 83 82 99 99 79 88 88 85 67 73 84 84 64 48 60 58 54 54 48 54 49 50 45 45 38 38 33 32 36 37 34 34 37
65 62 60 76 74 84 94 76 74 77 77 83 95 96 96 86 86 86 90 92 89 92 86 84 72 57 53 57 46 62 56 55 56 55 48 46 35 38 30 36 34 38 42 45 48
69 66 62 57 78 87 78 76 80 80 93 81 96 86 88 84 83 97 85 99 91 91 93 96 93 71 63 54 47 63 51 53 53 56 58 51 50 32 28 34 35 36 44 52 57
66 72 67 67 59 69 78 84 81 90 92 97 94 87 75 89 84 84 89 81 79 78 80 93 96 93 90 90 60 47 51 54 56 57 80 54 49 27 28 28 34 36 44 52 57
62 66 81 85 86 90 92 92 94 85 95 99 99 76 83 88 80 73 84 73 72 96 99 95 95 87 80 94 79 71 68 91 92 91 65 55 52 27 30 30 31 39 45 52 59
53 62 82 91 90 90 91 85 87 89 100 96 79 75 91 87 84 93 87 71 62 67 95 96 98 79 84 80 89 95 93 72 63 48 41 54 48 29 30 30 34 42 48 53 62
57 64 81 89 89 94 97 95 96 98 99 87 67 71 87 69 77 94 96 70 59 59 74 92 97 58 55 53 54 78 96 48 61 57 58 34 35 29 32 34 35 44 50 53 66
54 62 71 76 78 82 86 95 95 86 68 60 72 68 69 73 70 80 96 63 59 53 50 62 94 63 57 50 51 54 48 71 77 70 55 31 28 24 40 36 35 39 45 52 66
51 67 64 66 67 79 100 99 76 72 68 58 67 66 61 72 68 67 67 62 51 52 48 52 60 82 62 62 59 60 60 57 50 53 40 23 18 23 27 30 36 33 44 56 68
49 83 62 62 87 90 95 85 81 65 60 53 54 62 58 63 65 59 58 57 52 46 49 52 63 83 74 57 53 53 53 44 55 66 65 62 29 30 26 31 34 36 48 61 74
64 54 59 59 87 83 70 68 74 56 54 50 52 52 52 57 61 56 54 56 54 47 48 49 71 88 81 64 61 69 59 52 55 66 82 48 26 34 33 34 32 44 50 64 75
67 84 66 67 90 70 70 68 62 66 54 53 51 48 49 53 52 60 56 60 58 55 54 47 59 69 54 63 68 90 68 60 72 78 51 44 31 33 33 31 41 45 50 70 76
81 94 95 89 79 72 73 71 68 62 59 52 49 46 48 55 57 58 60 59 59 63 54 50 94 83 61 63 69 70 68 66 82 60 75 42 42 28 30 36 41 47 68 74 78
96 91 91 82 85 69 69 68 70 69 70 55 50 54 49 47 44 56 58 56 53 56 54 58 94 86 74 68 69 86 64 62 64 59 57 52 51 32 35 42 47 59 75 78 78
85 92 94 84 72 66 64 66 67 65 73 73 53 54 56 62 65 58 51 49 48 53 57 60 86 81 74 66 72 74 65 62 59 58 53 61 44 36 39 41 52 73 81 79 80

GFSSW_850_rhum_051.txt.gz
RH
94 93 93 93 84 80 86 92 92 81 83 80 73 89 86 79 80 80 98 98 91 87 57 64 85 88 81 61 50 48 46 45 36 30 25 20 21 22 20 18 18 16 21 49 55
98 96 91 81 74 77 92 92 91 98 98 86 74 76 88 66 75 76 89 92 98 78 98 66 84 88 69 55 50 44 46 37 26 23 27 22 23 19 22 19 17 20 31 58 59
96 96 93 93 79 79 79 94 93 92 91 80 80 76 82 76 74 51 62 75 94 87 89 69 67 85 60 48 44 38 33 27 22 30 31 26 24 18 21 18 17 18 22 44 66
93 92 93 95 94 83 79 72 78 93 76 70 69 74 82 87 57 31 77 73 74 93 86 69 64 76 57 52 42 39 30 22 25 34 37 27 22 21 22 18 20 21 30 31 50
96 94 88 86 88 80 79 84 88 76 77 68 73 77 92 87 60 78 74 71 91 87 76 70 54 64 56 45 39 39 28 28 33 43 39 27 24 22 23 24 30 31 34 30 29
97 87 91 92 90 80 96 88 72 73 74 72 74 79 95 85 55 59 92 94 95 92 65 66 54 56 51 44 40 38 34 34 33 40 41 37 29 30 28 27 29 29 29 26 27
98 83 80 84 79 71 94 90 78 73 69 67 70 86 93 68 65 71 94 94 91 96 65 59 52 58 53 51 44 43 37 35 32 34 36 40 36 35 32 27 28 25 27 26 25
88 81 77 83 79 73 69 72 75 73 71 75 74 95 83 64 65 90 86 91 88 96 68 68 61 52 56 52 50 43 42 50 32 35 34 36 35 24 29 29 26 23 22 20 21
88 84 85 82 82 83 60 67 62 64 67 73 85 91 62 65 76 82 87 84 91 87 71 82 77 61 56 52 58 50 44 41 31 27 34 40 28 20 26 28 25 22 22 22 22
86 84 80 82 78 84 64 63 64 88 84 88 83 81 62 63 76 91 84 75 99 82 96 96 82 68 53 46 54 46 41 28 27 37 33 34 34 22 28 29 25 23 22 23 24
89 74 75 79 89 65 81 93 80 80 85 66 63 68 76 89 99 90 68 83 86 72 75 85 84 80 52 37 28 29 31 26 26 37 39 34 31 27 26 28 27 26 24 22 22
89 79 80 60 63 63 86 73 84 93 60 71 66 69 77 91 100 100 92 95 64 71 69 94 93 50 39 34 36 38 32 32 36 36 38 28 36 30 28 27 26 26 27 26 26
85 73 71 73 74 90 89 84 68 82 61 64 76 84 88 99 86 97 90 84 52 65 67 79 78 54 49 42 42 38 37 30 37 44 39 40 39 33 30 30 31 31 28 26 27
69 65 58 73 94 94 94 87 79 88 87 86 95 91 98 95 88 87 90 88 86 72 64 70 76 66 52 48 37 43 36 37 49 48 36 36 23 36 32 32 30 32 33 35 38
68 69 69 52 80 80 73 74 72 94 85 87 92 93 98 88 91 94 88 82 85 84 91 97 81 70 56 48 35 49 46 49 50 49 51 44 43 30 27 35 32 32 39 44 47
55 73 76 97 74 61 61 66 85 94 91 98 94 82 82 88 90 96 98 84 75 77 82 92 88 77 61 57 46 46 51 52 52 53 74 47 38 33 29 27 30 32 37 43 48
54 64 82 87 91 87 86 98 97 86 94 100 92 69 91 84 88 88 89 90 96 99 100 98 98 87 82 73 55 50 60 82 87 94 60 44 49 26 22 21 26 31 37 44 50
54 64 80 91 94 94 99 84 87 92 100 85 84 70 89 65 77 83 67 73 66 61 88 100 98 99 90 80 81 65 60 63 63 63 51 45 46 26 22 24 32 38 42 48 53
49 62 81 88 91 99 99 90 92 98 95 69 56 62 73 60 82 94 75 59 52 48 72 78 100 80 83 79 77 96 96 44 48 37 41 33 28 30 26 26 30 38 45 48 55
50 64 84 72 77 99 82 90 85 79 67 51 58 57 61 57 61 63 72 53 56 49 42 55 90 61 55 51 49 68 56 84 77 75 50 35 26 23 33 32 33 36 38 46 58
55 75 64 66 81 80 99 96 65 58 56 53 53 50 51 56 53 53 57 54 45 45 41 46 54 75 59 61 58 56 58 52 50 50 46 27 20 23 29 30 31 29 39 50 60
81 82 59 64 81 77 83 62 65 51 50 47 48 49 47 50 51 49 55 48 44 38 45 48 58 78 68 50 47 45 44 42 56 63 53 53 32 20 24 26 30 30 43 53 66
78 67 59 63 77 71 60 55 55 46 45 44 47 47 46 47 53 46 47 52 47 42 43 43 70 85 75 58 52 61 50 44 45 64 85 49 33 24 25 28 29 38 47 51 64
80 81 78 69 72 52 51 50 52 58 46 44 44 42 45 46 42 52 51 54 52 48 48 41 51 68 61 64 61 85 58 52 69 80 48 38 29 32 31 26 35 42 44 56 65
78 83 91 84 63 57 57 54 53 52 48 44 43 40 42 48 45 47 48 52 49 55 46 44 99 88 53 53 66 70 62 59 81 59 70 38 30 28 25 28 37 42 51 62 66
88 90 86 72 66 60 62 56 55 56 55 46 45 39 37 39 37 44 44 44 46 47 45 50 89 81 68 53 58 78 58 54 59 58 50 45 45 29 27 35 41 46 61 64 68
92 98 99 72 57 57 52 54 57 55 61 56 44 42 42 46 47 46 38 39 39 44 47 54 78 84 70 58 61 67 55 54 52 50 49 56 40 32 34 37 41 55 65 67 69

GFSSW_850_rhum_054.txt.gz
RH
96 100 100 86 87 81 75 79 88 91 93 87 86 72 71 99 80 66 76 92 88 75 49 69 65 85 86 70 58 59 83 90 64 45 36 21 21 20 20 19 17 17 37 52 78
95 98 96 92 94 92 82 77 92 94 91 92 84 76 75 92 82 82 69 64 86 92 67 73 83 82 92 72 60 49 66 64 42 34 33 24 22 22 21 21 19 17 30 49 56
99 97 93 85 89 88 85 77 80 89 93 92 79 74 74 86 89 70 62 82 74 92 85 70 80 87 84 62 53 48 57 43 34 31 32 26 24 23 22 26 19 18 23 49 60
99 98 85 83 86 86 85 74 75 90 93 80 84 76 77 81 86 64 42 69 76 94 88 78 58 78 70 63 50 47 42 36 29 34 33 29 26 24 21 21 22 24 27 38 54
98 92 82 81 79 87 93 85 87 78 76 74 69 75 81 95 78 54 65 55 60 90 84 78 56 69 63 54 44 46 35 32 30 40 38 30 29 26 22 22 26 30 30 29 28
100 100 82 77 74 82 75 88 78 81 75 75 74 77 88 91 66 60 68 97 93 82 82 77 54 59 53 43 45 40 37 32 31 41 39 32 28 25 23 23 27 29 29 28 27
100 84 82 87 76 80 62 66 68 79 64 67 68 76 95 75 62 72 53 94 93 88 82 63 50 52 55 52 42 39 43 39 33 39 39 36 40 36 27 27 28 27 28 27 26
94 76 84 83 80 79 57 57 67 68 68 68 72 96 82 65 64 73 75 94 100 82 72 60 51 50 57 52 45 48 46 52 38 37 37 41 50 34 30 31 30 27 25 24 24
86 76 68 80 75 79 48 60 60 60 61 70 80 94 66 61 68 66 80 89 87 88 71 58 58 59 59 67 66 54 66 57 45 33 36 40 42 31 27 30 31 28 25 22 22
85 79 75 86 82 69 58 57 82 85 72 87 84 81 68 63 62 67 74 98 94 86 73 67 72 77 69 79 90 66 61 50 45 34 38 48 46 30 25 26 26 24 22 22 23
90 82 78 61 64 65 83 87 78 80 82 89 75 67 71 74 79 73 80 88 94 88 88 80 87 89 71 57 44 41 46 46 34 36 38 40 40 35 27 29 30 28 26 24 22
91 72 76 68 63 79 85 74 84 90 74 63 62 63 70 81 93 92 93 92 98 85 73 89 86 58 50 45 41 38 43 41 32 39 40 37 39 32 29 29 28 28 26 25 25
69 65 72 72 72 84 88 97 94 92 77 70 87 86 90 86 96 92 87 90 82 65 76 76 64 49 47 48 44 42 46 36 41 44 40 41 44 37 32 29 30 31 31 30 27
55 70 66 83 85 65 64 70 94 64 99 86 84 96 96 94 99 94 84 95 71 65 66 73 68 68 71 59 40 47 34 36 47 55 55 43 39 34 38 35 33 31 29 29 33
54 59 75 78 96 80 50 55 67 94 89 82 84 89 84 99 94 94 96 71 72 88 79 92 80 79 85 59 42 43 45 49 50 57 59 51 61 39 38 40 38 34 36 42 44
47 61 74 91 92 70 61 76 89 99 96 99 94 90 90 81 83 89 91 78 68 76 83 93 84 84 87 73 50 49 57 57 55 60 91 59 50 48 42 37 37 36 41 44 48
42 60 70 83 97 91 92 94 98 93 94 98 98 90 93 90 86 85 90 90 92 98 99 98 96 87 87 83 62 56 71 95 96 97 87 48 56 47 30 30 34 37 38 43 49
41 57 66 81 98 95 96 98 88 86 100 80 76 63 85 84 86 94 96 95 71 75 99 99 99 96 86 72 76 68 69 92 75 92 74 45 69 40 27 27 29 34 39 46 52
41 56 78 90 82 97 100 90 90 99 92 69 64 61 66 68 72 74 79 81 77 69 94 100 100 92 86 74 71 88 96 47 70 36 70 55 36 31 29 38 36 37 43 47 54
42 70 85 68 76 95 96 83 77 71 63 50 57 54 58 62 64 62 63 51 57 48 48 62 98 96 91 82 75 80 61 84 95 83 64 44 39 41 40 36 38 46 45 47 56
73 76 76 64 77 98 93 93 65 53 52 54 52 47 47 51 51 52 56 53 44 45 43 58 67 98 79 93 92 91 97 75 70 71 84 55 37 26 35 33 41 37 39 46 56
80 90 69 59 90 81 98 62 54 48 49 46 47 48 47 46 46 48 56 52 41 40 51 52 68 93 75 50 47 53 55 54 97 85 72 76 52 23 32 36 33 30 43 51 62
83 64 69 62 97 82 56 53 52 46 43 42 47 46 44 46 54 48 54 52 45 46 50 50 81 88 78 62 53 64 54 48 63 80 87 82 56 26 31 34 30 31 45 50 63
79 92 78 73 63 63 54 50 53 54 45 42 44 42 46 47 42 53 59 52 51 50 44 44 59 79 86 77 76 84 64 57 77 92 67 63 45 34 35 34 33 44 45 53 64
72 82 88 94 72 66 56 56 51 52 48 43 44 43 44 49 46 50 55 59 51 48 47 57 95 84 60 57 83 79 68 65 81 73 78 50 39 36 36 36 38 42 46 61 64
82 89 87 76 67 62 62 55 55 50 53 47 50 38 37 41 40 47 48 51 54 51 50 58 92 86 72 54 58 82 67 62 66 66 65 58 54 36 31 34 41 46 60 62 67
65 88 98 68 58 61 70 67 60 55 57 52 53 42 43 58 50 45 39 39 40 53 53 66 88 92 85 62 65 80 65 64 59 58 60 69 49 36 41 42 43 52 62 65 67

GFSSW_850_rhum_057.txt.gz
RH
92 99 99 99 94 86 88 88 76 79 89 94 90 83 81 73 92 92 69 73 82 79 73 67 55 69 93 88 71 71 88 87 82 73 58 39 43 21 18 19 20 43 49 59 68
99 100 98 99 88 85 87 85 79 74 80 90 92 81 77 74 94 95 67 55 64 85 67 69 51 76 96 82 69 82 86 68 52 57 58 45 38 36 22 21 31 52 52 52 59
99 96 99 98 80 76 87 97 88 79 80 94 83 84 74 82 95 89 61 47 57 87 83 68 40 90 83 74 65 59 78 59 53 51 66 47 38 35 25 26 22 49 40 37 45
100 96 100 99 81 82 77 96 94 74 84 93 75 71 74 89 93 61 80 66 55 86 88 78 75 91 79 76 61 58 50 52 48 52 62 40 31 31 24 28 26 22 35 42 44
98 91 94 95 84 81 77 80 81 85 89 72 67 69 78 90 78 57 70 81 78 89 85 91 80 84 78 71 60 62 45 45 43 38 45 37 30 28 24 29 26 36 44 44 47
97 95 83 91 89 79 78 56 81 86 78 67 67 75 80 92 60 58 58 76 80 86 84 86 66 73 67 62 60 49 48 41 36 40 37 33 31 28 24 27 27 25 28 27 28
99 88 63 86 78 72 62 50 71 72 66 61 65 80 91 72 68 65 66 67 78 91 88 80 56 68 57 56 48 46 57 51 50 44 41 35 39 38 28 27 28 28 28 27 26
99 85 73 80 71 72 47 55 63 60 64 75 68 83 83 53 51 76 86 71 94 85 71 70 57 62 57 51 49 51 55 76 45 45 41 36 52 40 27 30 29 30 28 27 25
98 84 66 83 74 57 48 51 61 68 52 70 74 84 82 67 59 58 64 70 96 90 79 60 62 57 62 71 75 65 77 69 49 41 46 44 51 36 31 31 31 31 30 28 26
98 68 60 58 58 58 67 72 77 77 71 82 87 86 70 78 73 60 69 83 99 89 95 77 66 81 84 84 88 81 70 61 54 43 44 50 49 39 31 28 31 31 30 26 25
91 64 56 62 54 60 68 81 75 80 84 68 70 74 78 70 73 78 63 93 100 95 86 70 87 88 83 73 58 55 56 61 50 38 43 48 49 42 36 29 30 29 27 26 24
61 66 54 68 78 74 75 83 93 92 85 66 66 67 76 76 81 82 77 97 84 95 85 89 90 74 66 66 71 52 58 56 40 40 43 46 51 45 39 33 27 27 27 28 27
57 59 66 61 69 66 63 72 92 90 90 80 82 92 81 87 94 89 96 86 81 91 76 76 69 62 61 64 66 49 53 50 49 46 44 42 47 41 36 31 30 31 30 30 29
46 59 71 67 85 87 70 55 64 80 96 88 82 94 100 80 92 89 98 91 90 82 70 78 63 60 61 63 53 58 40 40 54 59 65 42 58 40 40 40 36 32 30 29 31
34 58 74 74 66 84 62 59 72 89 88 76 91 89 97 86 91 83 85 95 89 84 72 96 83 82 77 67 56 54 48 55 55 59 58 54 66 50 44 45 41 37 33 36 41
36 55 70 81 84 87 89 63 84 91 96 99 98 95 95 97 93 85 98 90 67 75 80 91 82 87 88 76 72 53 61 65 67 71 91 66 64 52 50 40 43 41 43 44 45
42 54 63 81 88 90 88 87 93 96 86 100 98 85 80 92 89 84 79 84 90 98 96 96 96 83 90 80 73 61 69 96 97 96 92 54 66 52 38 37 39 47 44 45 48
44 56 65 84 87 86 93 95 92 84 97 84 77 77 91 89 95 92 79 90 73 84 95 99 97 95 91 89 90 69 65 87 85 98 85 49 73 54 34 30 33 37 41 46 51
52 68 65 74 85 83 98 95 90 96 88 84 68 70 77 74 85 92 86 86 76 72 88 94 99 90 91 84 80 85 91 54 73 52 83 65 45 33 43 47 41 42 46 49 53
60 86 84 66 86 94 91 90 81 79 68 58 66 55 61 74 75 78 77 68 73 72 69 90 99 95 90 85 75 80 67 83 94 90 70 63 47 49 50 51 46 50 47 46 58
72 82 85 68 86 86 92 95 74 67 54 59 62 51 49 58 60 61 66 54 52 53 53 67 77 99 93 98 95 83 95 78 77 85 88 64 50 28 36 44 48 51 45 50 56
71 95 78 72 99 91 97 83 58 52 52 56 52 54 50 49 50 64 69 58 43 43 63 54 81 99 92 68 71 70 76 70 93 85 74 82 58 32 36 39 42 44 45 51 59
77 73 85 87 98 93 60 58 58 56 46 47 50 48 48 49 59 56 66 54 48 54 55 57 80 96 90 68 60 92 73 67 65 77 84 79 62 34 40 41 33 33 43 51 59
78 95 65 84 71 72 72 62 66 51 50 44 46 45 48 50 44 58 66 54 51 50 47 49 73 78 83 71 75 83 68 63 76 86 69 75 46 40 43 41 34 33 48 53 65
69 83 84 97 85 79 71 59 59 64 52 44 48 48 53 53 51 58 63 62 54 46 50 62 83 80 67 75 80 79 72 72 78 66 74 56 49 39 42 38 33 39 48 61 65
88 89 89 87 76 76 69 74 63 60 54 57 53 52 44 55 49 58 60 63 65 55 55 68 93 86 64 62 72 85 71 71 73 65 66 66 67 39 31 32 46 45 52 63 65
46 76 89 77 70 75 76 72 72 76 57 54 57 64 59 61 51 46 43 44 50 61 65 74 89 91 87 65 70 75 70 69 67 66 61 76 51 40 43 47 47 58 60 62 65

GFSSW_850_rhum_060.txt.gz
RH
94 96 94 94 97 89 86 88 89 81 70 77 84 94 83 76 74 95 98 55 72 84 79 72 69 74 87 88 73 69 87 73 69 67 59 59 60 43 25 21 24 38 54 62 72
98 88 91 96 99 98 80 78 88 94 80 76 82 93 83 76 78 85 79 73 66 87 91 76 72 69 96 86 81 76 74 68 50 50 74 74 63 60 32 38 62 57 62 73 75
96 91 89 87 98 90 85 74 83 93 87 79 84 93 84 78 88 91 60 67 60 79 94 80 64 68 84 84 78 87 76 60 52 50 75 84 73 64 48 27 53 57 67 69 66
91 100 98 94 96 93 76 78 89 91 79 83 74 78 72 85 84 69 60 80 72 72 96 83 82 87 86 91 69 74 60 58 54 52 83 83 71 67 46 29 26 24 27 45 39
96 99 94 94 87 80 74 66 75 84 85 67 68 70 75 89 79 73 67 76 78 76 100 89 79 87 84 73 70 62 55 56 62 61 71 75 82 75 46 34 28 43 53 46 43
92 98 77 84 72 68 54 55 68 69 71 63 68 70 82 95 54 55 68 66 84 64 99 88 76 80 69 67 69 62 54 53 60 55 68 80 80 73 39 29 48 55 53 51 50
92 91 71 69 70 58 40 57 62 62 61 60 64 75 79 59 65 69 68 72 87 80 91 87 73 68 62 68 55 54 66 57 53 46 44 57 64 60 35 31 30 29 28 27 28
96 92 59 68 65 48 56 51 60 62 60 71 69 78 86 60 55 62 72 71 84 84 83 82 68 63 62 56 58 55 68 81 54 48 42 36 51 39 33 31 30 30 30 29 26
95 91 60 53 52 57 57 73 62 52 52 67 77 84 78 74 68 66 80 74 87 85 84 91 79 68 65 76 77 68 88 80 59 47 48 42 50 38 30 33 31 30 30 30 28
98 85 57 58 48 48 66 72 73 72 78 79 85 90 78 70 74 73 63 69 90 84 98 99 76 84 84 80 85 83 74 67 58 52 50 52 52 37 32 32 31 30 31 31 29
85 81 55 59 63 59 60 68 66 72 77 73 67 75 69 72 75 80 72 67 96 98 95 78 88 92 80 66 57 62 63 68 54 44 48 56 53 45 35 35 33 31 30 32 27
42 69 64 55 60 63 57 63 94 76 89 76 77 75 81 86 82 89 74 79 94 97 81 97 86 75 71 66 60 61 63 66 48 44 46 51 55 50 43 40 33 29 31 30 28
17 60 71 63 60 59 57 64 74 79 88 87 83 85 87 85 95 95 71 88 87 92 86 82 76 68 69 77 78 61 65 59 52 48 43 48 56 50 44 39 34 32 28 27 29
13 53 71 77 79 71 81 61 72 88 92 92 82 93 92 81 94 88 95 95 87 92 69 80 67 72 71 76 66 73 48 46 51 59 69 43 72 42 46 43 40 33 32 30 30
22 48 68 82 80 63 67 63 74 83 92 88 92 72 86 89 96 98 94 91 91 88 70 98 80 78 75 68 53 58 47 55 58 62 58 56 61 54 43 48 44 40 33 31 33
31 48 65 75 85 85 83 85 84 86 96 99 96 91 87 90 88 88 98 88 73 75 82 90 82 90 94 78 64 54 61 68 73 72 90 66 61 61 54 46 41 41 35 33 43
34 53 66 77 84 90 86 87 84 95 84 99 95 86 86 90 91 93 88 89 94 96 98 95 96 82 89 78 66 61 69 95 94 96 90 61 69 52 42 39 42 44 47 47 49
42 58 65 77 88 89 91 83 85 80 98 83 85 86 96 90 88 85 79 90 78 79 94 95 99 93 86 88 88 75 66 87 86 96 80 56 82 56 41 34 33 35 42 44 48
51 62 72 73 86 92 88 94 81 87 78 89 71 82 96 92 87 87 74 89 78 74 85 88 98 87 87 84 84 83 94 60 73 66 87 68 56 38 44 45 48 47 45 47 50
61 75 81 73 90 97 87 90 87 76 76 70 70 54 67 96 90 90 90 72 78 73 68 82 97 86 87 91 88 83 68 80 92 85 75 66 61 53 51 54 52 57 53 51 54
78 81 80 77 96 86 96 95 76 66 67 61 64 55 53 67 76 77 76 67 60 74 68 79 78 93 92 98 94 95 92 82 76 84 89 76 59 37 45 45 51 55 48 50 54
68 95 82 86 97 94 94 84 59 56 54 60 54 56 55 50 58 68 70 60 50 50 70 63 84 95 87 76 77 72 82 73 88 84 80 82 59 34 36 44 47 50 46 46 54
77 82 92 97 88 94 68 61 59 58 50 50 52 49 49 52 62 66 66 55 51 53 63 60 85 98 98 82 74 97 86 70 71 79 87 82 62 38 40 44 43 46 46 49 58
72 90 69 86 81 80 80 64 64 55 54 46 48 46 49 51 50 67 66 56 52 48 50 54 76 76 82 69 80 89 88 76 83 96 74 80 57 39 45 45 40 43 44 51 59
63 88 87 96 87 85 80 71 59 64 53 47 50 49 53 56 56 67 67 63 55 49 56 58 79 79 69 74 74 74 77 78 93 77 82 63 56 37 42 41 37 31 38 52 63
73 88 81 87 82 84 77 83 74 72 55 62 58 61 54 54 52 64 67 66 64 56 58 71 86 81 60 65 68 85 71 74 69 68 64 62 65 51 35 38 36 33 50 55 61
51 86 89 78 74 74 75 75 75 79 60 58 62 67 61 59 51 47 48 49 54 61 70 72 90 86 80 70 65 73 68 69 71 69 60 72 50 43 44 40 39 44 49 53 57

GFSSW_850_rhum_063.txt.gz
RH
95 86 94 90 88 86 93 95 85 79 90 84 71 79 90 82 74 75 92 95 71 89 79 70 71 84 98 89 74 71 80 69 65 66 58 64 64 53 43 38 46 47 64 61 78
93 95 100 100 95 93 94 76 75 71 82 98 85 80 90 81 72 75 65 79 69 85 97 89 63 80 94 89 82 88 82 66 50 52 68 73 70 67 57 51 65 77 69 73 76
94 91 98 96 96 91 79 72 70 82 92 94 98 87 86 69 83 53 46 56 77 87 100 99 78 74 90 86 84 87 73 60 49 48 68 78 70 62 61 49 33 76 76 75 74
86 86 87 100 84 82 66 63 60 74 83 88 84 79 70 76 87 94 54 46 67 76 89 100 97 81 83 92 81 86 68 56 58 64 74 76 69 69 60 54 46 42 67 61 72
85 90 77 95 83 62 45 55 64 72 72 63 65 67 75 92 77 85 89 96 93 87 84 100 94 79 90 86 70 68 63 59 74 69 70 71 75 82 62 46 39 38 52 54 61
92 91 81 97 68 44 48 60 67 66 71 64 64 66 75 95 50 51 73 67 71 75 80 100 89 71 80 77 76 64 55 64 85 77 78 76 72 69 55 49 45 50 58 51 44
89 97 85 69 56 41 52 51 55 61 60 60 62 71 79 61 63 74 63 72 75 79 75 99 76 71 72 76 65 62 72 74 79 70 68 68 89 87 53 50 51 49 63 63 58
98 98 86 56 51 47 49 68 68 78 66 74 76 76 68 70 68 72 66 77 78 86 79 88 86 65 70 65 63 73 74 85 67 59 56 78 85 76 60 57 51 33 32 31 30
96 99 95 52 49 54 54 69 55 59 61 75 84 79 70 80 76 72 65 90 90 90 67 95 87 73 72 83 80 68 93 81 68 52 59 71 59 58 60 63 54 39 32 30 28
90 74 95 51 57 56 53 60 66 80 78 82 94 80 75 77 84 78 77 89 93 96 100 99 70 88 86 84 85 86 83 72 67 55 52 62 49 40 40 45 43 39 35 32 30
63 65 75 50 60 71 64 69 65 72 73 74 73 79 85 83 77 70 71 65 84 97 91 94 88 93 86 68 58 66 68 70 55 51 53 54 52 45 40 38 36 33 33 32 32
14 34 69 54 47 57 48 57 71 77 78 85 84 82 81 94 89 83 69 81 90 89 87 97 86 76 71 59 59 61 71 72 52 50 51 56 57 48 42 43 36 31 31 31 33
13 29 66 64 60 53 51 57 74 84 87 86 86 81 88 88 93 93 87 87 92 96 93 94 70 72 71 74 70 64 71 66 60 50 46 49 57 51 45 46 40 34 31 30 32
13 40 63 73 73 73 64 54 62 89 92 97 86 92 90 81 92 81 88 88 91 94 90 83 73 77 79 81 70 72 52 52 56 58 75 48 80 50 50 50 45 37 34 32 31
15 42 63 76 74 72 71 62 68 93 90 86 88 82 82 91 94 91 88 98 93 90 88 98 84 84 82 74 55 62 49 55 53 62 58 56 66 55 43 53 46 40 36 34 31
22 47 63 77 83 87 89 87 77 83 95 98 95 87 80 88 88 90 98 97 84 80 83 91 85 84 89 75 57 57 62 68 73 72 90 65 64 66 51 44 38 38 34 34 32
33 56 67 77 85 93 94 83 85 95 83 97 93 76 80 95 92 90 91 90 95 99 96 95 96 87 86 74 66 59 71 96 95 96 92 65 67 51 42 42 40 38 38 34 38
41 63 72 84 84 90 98 78 84 76 91 84 84 80 87 84 92 86 84 92 74 74 91 95 96 90 86 82 78 70 64 89 86 96 81 68 81 58 45 39 36 34 35 36 48
49 64 78 82 92 93 94 91 75 83 76 90 82 89 88 78 81 79 82 90 73 69 85 92 93 86 86 84 81 80 93 57 77 72 89 72 60 42 40 41 40 44 44 54 55
63 75 80 78 92 99 90 90 85 73 74 78 76 60 95 82 85 82 83 73 78 72 64 78 95 83 91 80 82 83 73 83 91 81 80 68 68 51 41 47 51 61 57 54 53
76 83 83 82 98 91 92 92 79 66 72 64 66 59 79 93 90 89 87 73 69 81 71 72 77 94 91 94 87 97 94 82 76 81 80 82 60 46 36 42 54 58 52 49 52
69 95 86 94 91 96 90 82 63 58 59 59 58 58 56 58 68 70 75 64 56 72 74 70 80 90 92 78 78 81 81 83 90 85 86 84 69 32 43 42 49 54 48 48 50
75 81 86 88 94 96 74 64 62 58 52 51 54 52 51 55 69 68 67 56 52 59 71 71 91 98 100 85 78 98 90 76 74 82 90 87 71 37 41 47 48 50 47 49 50
72 87 66 79 80 82 87 72 64 57 55 48 50 48 51 53 58 71 67 57 54 51 52 53 80 76 82 69 84 98 88 83 80 98 77 79 63 48 38 46 48 48 45 46 49
64 94 88 94 82 82 83 77 69 65 54 50 51 54 56 58 59 71 69 63 56 53 62 60 80 82 71 73 76 80 83 90 94 77 86 63 66 50 39 39 42 42 45 54 56
49 70 76 83 86 87 80 86 83 84 61 62 60 67 60 55 55 68 70 66 60 57 62 69 82 78 58 66 70 86 70 87 85 77 78 74 66 46 36 36 39 40 43 48 52
53 72 86 78 70 81 78 72 78 77 64 67 72 70 61 62 56 51 52 52 55 63 73 70 88 84 78 80 64 70 67 69 76 74 73 84 60 44 48 43 38 36 35 40 45

GFSSW_850_rhum_066.txt.gz
RH
86 91 94 99 99 95 96 87 85 70 78 65 78 86 80 86 81 70 69 78 84 98 88 82 90 89 90 92 85 81 90 75 78 64 60 66 60 55 44 49 44 60 77 71 79
86 96 86 82 99 92 83 78 65 66 76 76 83 97 83 89 79 70 47 50 73 85 100 97 78 83 83 83 84 88 88 72 52 58 66 74 69 64 52 48 51 48 97 84 79
86 93 83 98 98 80 51 44 52 72 77 95 92 94 97 80 59 45 44 42 53 82 98 99 82 81 70 84 86 94 78 63 51 58 63 75 73 66 58 51 52 56 64 100 89
84 99 81 96 88 48 46 52 69 69 78 87 91 93 87 64 55 84 91 52 63 82 98 99 100 84 71 90 85 94 72 63 62 71 63 67 66 66 68 54 53 42 40 92 81
86 98 82 97 76 38 52 55 59 66 73 71 69 70 77 81 56 79 83 87 94 97 90 98 99 86 87 85 81 80 74 70 66 69 75 64 76 71 58 53 50 45 43 61 59
94 89 91 96 70 40 50 53 51 54 58 61 65 71 72 82 59 48 72 80 82 94 88 88 98 79 72 81 82 67 62 64 85 76 81 72 78 62 44 47 47 45 51 72 62
98 96 98 85 66 44 48 56 65 72 61 66 63 70 78 59 67 81 53 66 79 85 76 83 90 69 75 81 70 65 83 90 90 86 85 70 77 80 50 51 51 48 47 76 68
92 99 98 98 86 51 52 64 72 49 50 68 78 71 60 69 79 56 61 62 79 69 86 80 99 76 78 71 66 76 82 94 87 92 87 75 83 73 57 56 54 51 52 38 59
81 98 96 100 68 59 48 63 66 66 67 78 86 88 70 80 76 73 67 62 75 74 96 90 99 80 78 86 84 81 92 84 91 76 86 72 78 56 64 67 62 54 49 49 33
81 73 81 83 60 78 57 56 70 71 76 79 91 92 74 81 83 84 75 84 84 97 100 83 99 89 92 85 88 90 92 79 89 71 79 74 62 68 64 63 64 50 52 51 42
59 29 61 67 55 56 54 68 65 66 72 83 83 87 83 94 86 88 91 85 91 88 90 98 99 91 86 72 62 74 76 78 58 59 73 80 66 55 66 68 68 55 54 48 43
25 21 56 72 55 50 48 56 70 70 76 82 83 84 85 87 93 91 84 90 97 93 86 97 98 75 68 59 64 68 78 75 55 56 62 62 65 50 52 64 62 50 44 37 40
17 24 54 73 64 61 50 59 68 71 88 93 96 84 88 89 91 88 90 92 85 96 97 98 75 76 69 68 70 67 78 76 68 58 48 60 63 60 53 47 44 42 42 35 31
17 32 57 74 74 73 66 59 67 83 89 95 85 91 89 84 91 88 93 91 89 96 94 94 70 79 76 77 65 72 60 56 62 68 86 51 86 64 53 51 49 45 41 37 33
18 40 63 78 77 75 72 66 68 82 91 83 85 84 87 94 84 91 96 76 90 90 93 98 81 86 82 76 56 63 56 56 55 67 61 59 73 62 45 51 44 39 40 34 33
21 47 67 77 88 90 92 92 87 83 86 96 88 84 88 88 88 88 95 95 83 80 88 93 87 83 83 71 59 62 64 70 74 74 92 68 70 71 57 43 36 35 35 30 30
27 59 71 81 90 94 96 89 88 92 79 86 90 77 87 94 88 89 89 94 99 99 100 92 94 88 84 76 65 61 71 96 94 95 93 67 74 55 43 40 37 34 28 29 34
37 64 76 84 89 95 96 83 90 83 97 85 84 74 96 93 91 93 84 95 77 81 93 98 99 91 86 78 78 67 63 89 86 96 83 70 86 59 44 39 38 34 32 33 32
45 68 85 81 91 92 87 88 78 82 79 89 84 89 85 77 83 81 86 87 70 66 80 93 98 84 91 86 78 81 86 58 78 75 88 75 63 43 41 43 40 38 40 38 38
60 78 85 81 96 94 87 86 82 69 74 81 78 72 90 74 86 82 80 74 82 70 64 76 94 82 92 78 87 80 72 84 90 82 82 70 68 57 41 40 39 47 54 49 48
78 86 90 91 97 90 89 92 81 70 72 67 68 66 88 92 88 89 79 75 73 80 68 71 75 96 80 92 93 94 92 81 77 79 78 80 66 50 40 34 40 46 50 53 55
72 94 90 99 95 97 93 82 66 61 68 61 60 61 68 88 86 78 81 71 67 69 72 67 80 90 84 78 74 74 85 81 94 88 90 87 74 37 39 43 40 48 50 52 54
73 78 88 99 90 96 77 68 64 59 54 53 56 54 52 59 72 71 69 59 60 63 75 71 90 97 93 88 83 98 88 79 77 83 93 88 72 39 40 42 46 50 49 51 52
64 87 68 81 81 83 83 77 65 59 54 50 51 50 51 56 64 74 69 60 55 55 57 56 81 76 86 67 83 99 82 90 86 94 76 80 68 53 47 39 41 47 47 48 52
51 90 96 92 87 86 83 83 77 67 56 54 55 64 59 59 62 73 70 64 57 65 62 60 81 87 72 69 84 88 85 77 96 87 89 66 67 52 47 48 39 34 44 49 53
44 63 71 84 86 83 85 88 90 84 69 66 62 69 65 56 54 65 69 67 63 58 65 67 85 79 61 68 77 86 78 89 84 80 84 78 82 52 44 39 38 35 43 50 47
52 66 81 76 69 83 74 62 82 76 75 73 75 72 62 68 63 56 56 56 57 65 74 71 87 85 80 79 68 75 67 71 84 86 82 91 66 53 52 48 41 34 37 44 44

GFSSW_850_rhum_069.txt.gz
RH
89 91 89 81 89 97 74 50 47 52 70 75 74 67 80 95 85 84 70 54 74 91 92 85 86 79 86 96 80 78 92 83 72 59 58 65 57 56 45 51 63 77 98 86 93
90 95 98 79 91 77 39 40 42 56 56 75 86 79 91 97 90 83 64 55 60 83 97 94 90 77 80 91 91 86 83 72 55 54 68 71 66 61 50 50 53 45 90 99 99
91 95 98 67 98 42 44 50 70 64 60 73 83 96 93 100 87 60 69 48 43 77 86 94 85 83 79 87 88 82 80 61 52 64 61 69 71 64 55 53 62 57 49 99 100
95 91 93 73 96 37 48 65 85 57 66 66 80 94 98 92 59 84 94 65 38 89 91 99 90 82 77 83 84 81 73 58 64 64 56 65 66 63 58 53 55 49 49 84 99
96 93 87 84 89 41 44 52 61 57 56 59 57 74 86 78 52 81 86 86 75 97 91 99 98 80 64 79 88 84 74 62 68 73 64 66 75 60 63 54 50 46 46 66 94
91 93 91 91 79 58 40 48 70 79 59 59 64 77 71 73 57 49 72 83 80 94 98 99 97 72 66 78 80 78 72 74 73 80 74 68 73 55 57 53 47 45 46 61 86
100 84 98 98 90 87 46 49 75 66 72 64 64 65 74 58 52 64 57 74 73 90 98 87 92 73 66 85 71 71 76 85 81 80 78 76 70 70 59 53 50 46 45 46 60
100 88 92 98 99 87 58 50 66 64 59 71 75 71 63 70 77 60 58 59 73 83 86 80 91 84 79 74 71 83 84 88 84 82 97 90 79 55 55 53 54 48 45 44 42
100 90 73 98 86 75 73 47 61 71 71 72 82 82 69 80 78 76 69 65 64 72 75 80 88 89 80 87 84 82 92 89 96 78 89 87 76 57 57 50 59 52 46 46 42
93 85 55 93 56 54 74 58 60 69 75 76 84 80 76 80 86 89 74 71 71 82 95 94 96 92 90 86 83 91 91 91 86 90 84 84 72 70 67 53 50 56 50 52 44
81 48 27 77 56 46 49 60 61 65 71 82 90 84 87 98 87 86 75 84 78 94 96 99 98 92 88 68 62 73 78 80 77 75 82 81 65 72 68 68 63 53 50 51 46
39 27 36 63 62 48 47 56 63 66 74 83 88 88 89 97 97 90 92 90 92 92 89 97 100 84 70 59 68 68 82 74 59 70 66 78 73 59 64 68 55 41 47 49 46
34 22 43 64 67 60 51 58 62 69 86 92 93 94 95 96 88 89 94 92 90 85 83 85 82 66 72 68 70 71 77 74 67 68 54 67 71 65 55 60 56 54 46 48 43
33 26 54 66 69 70 66 60 58 81 90 96 95 93 94 89 87 89 90 90 94 92 75 81 73 75 82 72 65 74 64 62 69 73 84 61 81 66 55 58 56 51 41 45 42
37 39 63 72 75 74 72 65 64 77 85 77 88 87 89 95 81 81 90 91 89 91 92 96 82 85 83 70 56 65 61 61 64 68 65 62 74 63 57 58 55 50 44 39 43
37 54 68 77 86 86 88 92 81 81 89 89 87 87 90 90 85 88 94 94 84 80 93 91 87 85 80 70 56 63 64 68 74 68 86 68 69 66 54 48 45 43 45 42 36
38 66 73 84 89 90 94 87 87 88 71 86 89 85 85 88 85 84 83 90 98 99 100 91 93 88 83 74 60 60 71 91 88 91 87 68 73 54 44 41 38 35 36 38 37
44 74 83 88 91 92 94 84 91 83 96 78 84 79 91 85 86 89 86 99 88 88 100 100 99 92 88 76 76 64 63 83 89 92 82 71 81 54 43 40 40 36 34 31 30
57 79 90 88 93 92 89 87 81 83 81 87 81 86 84 80 88 86 86 95 75 68 80 94 100 85 91 85 74 78 79 58 78 76 77 67 60 45 38 34 32 34 35 32 33
70 82 92 89 97 95 89 85 82 66 76 80 79 74 86 74 91 81 79 77 83 71 64 75 97 83 87 82 82 71 66 78 86 80 76 64 62 48 36 36 34 33 37 37 37
77 91 98 98 96 92 90 93 82 70 73 71 70 72 80 83 84 86 78 76 74 76 66 70 74 96 78 84 92 89 87 86 73 74 74 70 54 46 43 32 39 40 42 43 45
67 98 96 100 94 98 96 81 69 66 73 65 61 61 79 89 91 83 80 73 72 63 69 66 79 94 83 75 77 79 83 78 88 85 87 78 67 40 36 39 44 46 45 46 49
65 79 93 99 92 96 77 70 67 61 56 55 58 54 51 70 75 72 72 61 68 66 74 70 88 93 94 79 82 91 90 80 78 81 95 88 68 41 41 38 41 48 46 45 57
56 85 73 85 84 86 84 82 68 60 57 52 55 54 51 57 68 74 70 65 59 59 62 59 79 76 82 68 84 96 93 86 80 90 73 75 62 50 47 48 45 38 38 37 50
47 81 85 92 86 87 84 84 83 77 61 57 57 68 61 63 64 73 71 65 59 65 62 64 82 87 69 68 86 88 84 86 97 77 86 68 68 54 47 45 43 42 39 43 51
38 63 72 85 87 85 82 89 88 82 80 69 65 69 65 58 57 71 71 67 64 60 65 66 87 78 66 72 81 88 81 87 81 74 73 76 86 57 52 52 49 43 43 38 48
46 52 69 75 70 85 72 59 78 71 80 75 82 76 68 78 74 64 59 58 59 65 73 74 84 84 82 78 66 68 67 78 84 83 74 86 67 55 59 55 53 46 43 39 38

GFSSW_850_rhum_072.txt.gz
RH
92 96 97 100 76 67 66 79 43 43 43 53 66 74 71 69 92 92 97 81 57 83 90 79 79 94 96 87 79 80 65 59 45 44 43 55 45 56 49 45 50 55 85 96 97
99 90 93 95 68 66 69 70 54 37 42 57 65 74 87 78 94 96 89 66 49 75 95 88 91 90 71 70 79 63 69 50 37 36 37 52 49 53 42 44 44 46 65 98 99
98 95 93 96 75 85 48 52 54 37 39 47 55 74 94 99 99 98 76 70 50 94 95 96 88 82 61 73 68 69 73 41 38 44 54 54 53 59 39 44 47 48 55 99 100
97 95 90 96 92 84 36 48 42 52 47 47 52 70 78 97 94 90 84 84 62 90 95 92 85 79 58 64 62 67 58 49 47 48 48 51 52 51 51 48 54 54 58 93 100
98 97 93 92 90 86 47 43 70 74 65 51 59 66 68 80 71 75 79 82 63 89 97 95 84 71 55 50 58 58 49 51 49 54 49 58 60 50 52 56 55 52 50 82 94
98 99 76 94 96 76 82 40 77 78 60 52 61 64 75 50 56 54 68 82 87 88 98 93 82 67 50 50 58 50 52 51 55 56 59 53 54 56 50 55 49 47 48 53 80
97 99 83 75 96 92 80 45 58 58 54 52 66 61 66 57 51 65 61 75 80 92 98 98 88 69 59 46 60 59 60 55 57 59 59 55 58 57 44 55 48 44 45 48 52
98 99 93 74 96 81 73 49 50 61 66 73 76 75 63 68 78 59 61 70 72 73 90 86 94 75 59 59 58 61 55 74 55 58 73 61 66 49 47 54 46 42 43 47 45
99 98 74 53 86 50 68 61 48 64 70 72 81 85 64 77 87 74 63 73 80 76 85 94 88 83 71 63 60 63 58 62 70 56 74 61 54 46 49 52 47 43 43 47 43
100 91 51 55 75 45 55 53 54 64 70 77 73 75 74 81 87 88 76 66 74 82 84 98 96 92 63 61 64 53 50 53 58 67 66 65 57 64 62 57 47 40 41 46 45
83 54 47 62 78 48 47 57 65 75 72 80 86 82 77 87 88 96 75 75 72 82 98 99 98 100 57 45 30 33 44 58 53 69 67 62 60 53 50 51 49 42 38 44 46
46 33 33 64 76 53 45 54 57 63 68 85 89 94 96 98 90 93 80 74 91 99 92 95 100 84 43 48 44 47 48 54 57 63 62 61 63 52 44 44 42 44 40 40 42
40 32 38 72 70 63 50 58 56 64 73 90 92 93 97 98 82 96 89 87 69 100 85 82 83 79 58 53 52 46 44 54 52 65 56 59 63 56 44 42 46 40 36 36 38
38 34 54 68 75 69 59 57 55 73 91 87 94 93 96 95 90 94 89 84 88 92 73 85 70 72 59 49 44 59 42 48 58 61 55 50 37 43 47 47 42 42 39 38 45
38 40 63 72 76 76 72 63 57 72 83 70 86 88 93 96 77 88 88 79 94 80 70 82 86 70 63 51 43 53 49 47 50 45 49 55 53 29 40 43 40 37 38 38 38
37 53 70 77 84 80 86 87 71 90 93 91 84 84 93 80 77 83 92 93 78 82 78 70 58 64 58 56 46 50 51 52 52 48 68 43 48 34 37 36 33 31 35 39 39
39 68 76 83 88 88 93 86 96 86 74 85 88 88 77 77 75 80 78 82 87 98 97 79 67 75 74 58 51 48 52 83 79 83 58 52 54 35 29 30 30 30 30 34 36
46 78 81 87 90 87 87 77 94 79 95 70 79 89 88 74 78 79 78 93 76 79 83 94 99 79 74 51 58 56 44 56 62 62 48 55 57 33 28 32 34 35 33 32 33
56 88 90 92 86 91 88 92 79 91 86 74 76 74 85 85 83 81 73 94 63 54 77 74 98 85 77 67 58 60 65 43 57 55 55 43 42 32 24 25 23 25 31 33 34
67 92 94 91 93 94 86 82 72 59 68 68 64 63 62 75 80 73 92 71 69 59 54 63 97 76 79 66 63 57 43 62 72 75 58 42 38 27 29 27 24 24 27 30 38
85 97 98 95 97 92 96 92 70 68 68 62 61 62 62 66 69 66 70 70 62 60 53 50 58 94 73 80 73 63 61 62 49 56 50 44 31 26 27 27 28 30 37 42 47
87 89 100 98 91 98 90 70 68 64 74 61 57 58 61 65 68 66 67 64 66 51 54 54 61 89 68 67 69 68 55 50 62 70 63 57 39 28 26 27 33 36 43 46 45
75 96 100 99 92 85 68 66 65 59 55 53 54 52 49 64 66 63 63 60 71 56 54 53 65 87 93 67 70 79 65 58 56 66 86 62 42 29 28 30 36 37 38 44 54
64 85 84 97 86 70 68 68 64 63 55 51 50 49 48 55 57 65 62 59 65 58 61 52 61 64 61 56 56 85 70 67 73 86 58 54 42 32 32 33 32 32 37 41 54
50 62 81 88 74 70 73 74 69 67 60 56 53 57 52 55 57 62 61 57 60 66 58 54 97 82 56 63 72 73 65 66 89 70 73 49 45 38 35 34 37 39 41 41 49
50 59 64 74 80 72 71 78 75 72 71 64 56 61 54 53 54 58 58 56 57 55 58 57 88 70 66 66 70 81 62 63 65 64 61 58 57 38 40 46 46 45 44 45 44
38 41 61 72 62 69 61 64 70 66 74 71 74 62 61 74 80 67 59 55 50 52 62 68 73 75 78 63 60 63 52 56 58 58 58 68 50 40 42 41 44 47 48 48 46

GFSSW_850_rhum_075.txt.gz
RH
93 91 96 92 95 94 89 70 64 35 34 38 37 45 57 69 70 81 98 86 72 85 82 74 80 93 87 89 80 70 83 58 41 44 36 41 33 43 42 36 45 50 69 89 95
96 94 90 93 97 99 61 57 59 38 38 38 38 46 67 78 93 95 88 96 77 83 97 80 76 84 70 75 82 85 88 44 30 27 35 34 35 39 35 36 39 42 61 79 97
92 98 88 96 96 97 60 40 51 44 48 43 47 63 60 86 96 89 82 92 83 92 95 92 63 70 63 59 67 75 80 46 34 33 31 42 43 46 34 37 41 44 54 94 99
88 96 95 92 95 94 86 41 50 74 59 49 51 62 63 94 97 97 88 99 88 89 90 90 84 71 54 48 55 70 65 63 68 42 41 41 37 38 45 44 46 46 56 92 100
94 93 98 81 96 96 86 74 50 81 62 54 57 61 88 61 62 73 77 81 81 86 88 90 80 63 50 38 42 67 47 55 80 51 40 40 39 49 47 47 47 44 49 82 97
91 95 98 94 90 96 94 87 49 79 58 53 62 58 78 45 59 59 74 73 66 77 79 89 74 58 46 34 35 37 40 56 60 59 41 40 41 48 47 44 44 42 43 59 85
95 96 97 99 93 98 98 87 52 58 62 60 65 76 75 53 65 75 73 76 88 72 78 94 87 72 50 35 35 38 41 46 63 80 62 45 49 49 35 46 42 40 38 46 52
87 92 98 96 92 99 93 86 57 54 67 68 69 92 57 73 75 71 67 67 84 91 95 93 98 94 66 39 42 48 42 67 44 50 56 51 53 42 37 41 44 42 37 40 47
75 84 88 84 74 96 59 86 57 54 67 68 86 85 56 74 70 75 75 61 74 85 91 79 94 92 77 51 61 58 54 53 44 44 56 55 45 36 43 42 42 43 39 36 42
50 53 51 57 79 94 51 54 54 54 80 94 83 84 68 73 84 87 79 79 69 80 86 90 97 84 73 68 61 52 43 42 38 49 49 56 53 49 48 51 46 42 39 37 40
42 39 33 34 79 78 50 87 79 77 79 68 70 69 82 92 90 83 80 67 70 65 75 98 95 94 55 49 27 25 29 38 31 39 56 55 54 51 48 48 48 46 40 37 36
42 38 30 41 74 62 46 68 69 72 61 78 82 82 90 92 77 81 81 61 67 74 82 98 95 78 62 43 49 33 31 41 39 46 55 47 44 41 38 41 40 38 35 36 34
41 38 33 59 68 66 82 77 51 60 63 77 88 84 94 91 89 84 82 66 62 94 84 91 71 73 82 72 71 36 30 47 50 51 51 40 43 41 39 40 37 33 35 34 34
41 38 40 66 81 88 79 52 47 64 88 80 80 79 92 96 95 84 84 74 77 82 96 85 74 89 84 54 35 49 28 33 39 58 57 42 36 28 36 41 35 34 36 33 32
40 38 54 73 96 90 84 61 52 76 81 65 74 79 88 82 79 83 79 80 74 95 61 68 72 95 70 48 34 37 34 38 47 51 34 45 48 27 30 42 40 31 32 35 34
38 43 65 78 85 81 78 78 72 90 86 91 81 74 69 64 68 82 92 86 69 60 54 57 58 68 66 40 38 41 41 44 42 39 59 42 38 27 25 27 25 25 27 31 34
36 56 71 87 96 85 81 89 96 91 69 82 85 74 57 62 61 67 95 94 91 89 93 73 67 65 67 56 46 43 48 70 68 75 59 37 35 29 24 25 25 25 26 25 28
40 70 78 91 87 80 83 71 98 69 89 60 69 70 72 68 71 69 79 92 68 62 67 92 99 72 54 45 49 47 39 49 54 52 41 42 50 30 23 21 27 28 28 28 29
55 84 95 92 82 84 81 99 78 85 84 63 70 71 66 71 71 75 84 86 70 50 62 65 97 74 64 56 46 53 66 39 48 40 42 39 31 25 20 23 22 22 25 29 30
82 99 98 93 85 88 77 81 63 54 57 54 74 55 67 69 68 64 86 63 58 57 46 50 94 79 69 62 53 49 40 52 62 68 46 37 30 26 25 24 22 24 26 27 28
99 96 98 91 96 90 90 89 59 58 58 55 51 51 51 59 54 60 78 67 50 52 46 45 53 88 67 64 55 57 54 51 45 50 51 33 27 19 26 25 28 29 33 34 36
97 80 97 93 98 89 85 59 60 55 60 54 51 51 51 51 51 52 70 56 54 46 52 45 56 83 66 58 54 61 48 40 57 56 48 55 38 21 21 24 28 33 34 36 44
73 94 97 100 85 83 57 57 56 53 50 50 49 48 46 50 55 51 54 57 62 48 46 44 67 89 78 59 56 65 48 46 40 65 79 53 34 25 25 26 29 32 31 30 38
70 84 93 100 79 60 54 53 58 58 47 46 44 44 44 48 47 56 54 56 63 52 56 47 49 60 62 57 49 69 50 48 64 83 54 49 38 28 26 28 28 29 31 35 38
58 45 73 85 62 55 58 54 54 57 50 47 48 46 42 50 48 53 52 55 57 64 51 50 96 86 50 56 64 68 60 54 72 68 71 46 40 31 28 26 27 33 37 39 39
49 48 58 60 62 55 68 61 55 63 56 52 47 50 44 46 49 52 50 48 51 52 52 51 87 70 65 57 61 73 57 52 53 54 57 49 47 32 35 34 38 36 36 38 41
36 40 47 60 52 51 49 56 61 60 63 63 58 47 51 68 66 56 51 47 45 50 53 61 68 77 73 56 55 60 47 49 51 48 48 57 42 31 33 36 38 42 45 43 42

GFSSW_850_rhum_081.txt.gz
RH
53 82 87 92 85 91 96 99 86 95 85 57 38 33 32 36 40 65 75 61 68 76 85 74 83 67 88 97 87 77 87 84 68 58 49 38 41 37 43 48 51 62 66 42 65
37 66 88 92 96 82 90 97 88 49 79 84 46 36 38 52 68 71 96 84 91 86 82 81 71 75 91 91 86 77 89 76 56 60 47 40 38 36 42 54 89 74 73 51 45
36 49 90 90 100 81 90 92 90 66 90 89 48 41 46 75 82 76 67 90 90 87 84 92 93 84 89 83 79 74 88 70 73 73 56 44 43 38 45 54 51 88 82 78 83
40 40 90 89 99 98 77 88 91 79 83 77 50 49 50 76 94 63 65 83 74 91 86 73 88 88 83 78 75 87 73 75 79 82 78 54 44 50 45 47 45 53 64 84 83
41 39 80 84 90 99 87 86 90 84 51 74 53 54 64 81 69 60 75 88 80 85 80 84 95 90 80 69 73 78 77 79 76 73 82 72 64 51 48 44 48 60 69 73 70
43 40 65 82 98 88 90 80 90 84 53 62 58 63 83 87 57 62 61 86 91 95 77 83 88 84 70 62 67 72 68 75 80 75 90 77 75 54 48 43 51 53 62 84 80
46 41 53 78 89 76 76 91 89 78 55 63 60 71 90 78 53 66 66 84 100 81 76 88 87 85 78 62 53 63 72 72 76 78 83 77 79 67 46 43 42 51 52 76 87
45 42 46 58 50 34 63 91 52 63 48 63 68 82 91 64 68 68 66 74 69 82 84 88 83 79 82 73 58 67 68 90 67 84 86 83 82 71 53 45 43 48 50 47 54
46 43 44 48 38 32 62 50 48 45 63 66 76 84 78 65 69 60 68 74 75 76 86 83 90 82 74 88 68 76 99 95 92 80 89 84 80 60 55 46 43 42 44 46 49
46 44 44 45 34 45 56 44 50 48 77 81 84 82 73 72 67 76 58 66 76 76 70 82 90 88 88 87 86 82 78 74 80 85 79 87 78 64 57 62 46 45 42 43 46
46 45 43 43 34 68 52 68 83 81 75 70 70 63 76 69 71 76 60 64 68 71 90 94 99 91 87 79 83 69 62 63 57 73 75 74 66 59 53 60 50 46 43 42 43
46 47 41 41 48 65 47 76 73 75 76 72 75 78 74 71 70 70 65 65 62 86 85 90 100 84 69 74 84 81 61 54 53 70 61 62 62 59 58 59 48 42 41 41 41
46 48 42 40 62 65 66 77 71 55 81 82 75 78 80 76 78 76 74 56 66 78 82 87 89 76 77 88 85 85 68 59 60 74 80 74 79 65 54 51 46 45 44 43 42
46 48 42 48 80 84 80 74 54 65 92 80 80 75 80 82 74 75 75 73 77 82 75 88 76 74 82 80 70 92 62 55 64 77 88 66 90 62 52 59 57 52 49 47 48
48 48 39 59 86 86 85 76 47 79 93 67 76 74 84 83 72 75 77 66 71 84 73 69 87 86 80 67 67 79 65 56 60 72 66 75 69 53 44 56 57 50 42 41 41
50 49 40 73 90 90 84 62 75 92 85 88 77 89 73 77 83 83 85 76 77 80 82 88 70 74 75 60 66 67 65 77 75 72 92 68 66 56 51 45 48 48 41 40 39
52 45 55 94 88 88 75 85 89 99 76 82 80 71 78 83 91 86 79 88 88 95 96 89 87 79 78 78 66 69 76 99 98 95 78 52 58 51 36 32 40 44 41 39 37
53 42 74 99 95 80 82 92 90 59 85 59 74 76 69 64 79 84 86 85 82 95 92 95 97 86 75 77 74 77 77 83 84 90 68 46 64 43 32 30 30 30 28 29 28
46 66 93 87 81 81 88 86 79 81 80 72 74 79 69 72 71 88 97 69 76 89 79 87 100 80 76 65 61 71 83 47 68 52 76 63 47 32 35 34 31 30 28 28 31
53 93 96 87 81 76 90 82 67 67 63 60 89 77 76 80 81 87 94 69 70 59 56 68 95 72 67 62 55 58 53 67 85 68 61 68 47 47 35 36 43 44 38 32 28
71 93 96 88 80 80 86 88 68 53 57 61 78 69 53 68 73 76 87 67 58 57 49 57 73 86 71 73 70 70 80 62 61 81 82 64 52 37 39 47 50 45 35 33 33
83 98 99 89 98 88 80 83 57 59 57 58 55 56 52 51 66 64 75 63 54 47 60 72 81 94 81 73 65 69 70 63 87 71 79 80 57 31 42 45 40 38 36 37 39
90 99 100 90 96 90 82 67 60 63 63 62 58 50 52 55 66 66 70 61 49 50 56 55 83 96 88 70 66 81 67 66 66 74 79 80 57 34 36 38 36 36 36 38 41
81 98 100 100 95 93 83 72 72 57 53 46 49 46 49 61 53 69 74 61 60 59 53 52 71 75 85 69 76 84 68 68 74 92 73 79 50 36 34 34 31 33 37 38 39
73 89 86 97 90 84 85 66 71 69 54 47 51 51 51 57 60 70 70 71 63 58 54 67 86 76 60 63 72 70 66 67 80 70 80 61 59 48 44 41 37 38 39 38 38
72 78 80 82 75 91 87 67 66 64 59 56 59 52 52 74 68 67 65 68 73 65 59 66 90 72 69 58 63 72 69 70 70 62 67 63 66 46 42 41 42 45 45 45 47
56 55 60 69 78 83 79 64 63 68 64 66 60 59 78 78 71 62 55 50 53 70 72 73 83 90 90 63 64 73 69 70 67 59 60 74 54 46 43 44 46 47 49 50 48

GFSSW_850_rhum_087.txt.gz
RH
55 52 42 46 88 89 100 87 90 92 94 58 86 90 67 46 48 46 51 51 72 92 80 80 86 72 69 93 77 91 96 95 77 63 51 37 45 42 42 60 68 62 66 70 69
62 54 48 46 81 92 99 98 94 96 95 83 80 82 57 57 49 43 57 59 92 91 84 84 77 73 75 84 78 89 93 88 65 56 48 48 43 45 58 81 86 82 71 61 59
77 60 55 47 51 60 94 85 92 88 92 85 62 81 62 55 63 63 52 67 87 70 79 93 74 77 77 83 78 78 84 69 69 81 70 60 54 51 64 65 82 80 86 62 52
92 70 55 55 48 56 82 68 89 90 94 86 74 78 63 61 82 55 52 70 78 74 98 90 77 69 89 91 74 87 67 74 74 91 82 81 73 55 50 50 62 60 51 66 81
100 87 56 49 47 60 51 44 54 76 95 83 66 80 63 83 69 53 61 78 81 82 95 94 88 72 87 86 78 86 60 88 80 88 85 76 79 69 54 60 83 75 82 75 80
100 91 60 49 48 50 44 30 52 86 96 81 67 79 77 93 58 63 68 77 88 96 89 93 89 80 84 84 78 78 65 83 72 90 89 85 81 65 55 72 75 84 66 73 69
100 97 72 52 51 44 42 34 59 97 72 81 69 81 99 78 63 65 69 76 95 99 89 89 86 84 91 75 72 65 74 82 83 88 88 86 78 77 70 72 79 78 76 70 67
100 100 81 54 48 52 39 48 47 49 57 56 63 82 87 68 65 65 55 76 94 85 81 78 82 89 98 73 73 80 85 98 88 89 89 80 83 74 70 59 75 76 77 73 73
100 100 91 55 50 51 39 55 39 46 58 68 76 83 83 68 67 58 65 69 90 96 87 91 83 96 86 87 85 77 98 97 93 81 87 84 89 71 74 65 58 65 64 67 60
97 100 95 62 50 47 53 46 42 46 70 79 82 94 75 70 64 62 63 68 83 86 76 92 99 97 90 90 92 97 96 95 98 95 89 90 85 86 78 67 67 58 56 51 53
100 100 99 66 50 41 70 59 75 81 75 68 70 76 70 61 64 56 64 64 75 84 97 86 95 100 91 86 72 65 88 92 90 87 85 89 89 82 80 72 66 61 54 48 48
100 100 100 67 52 56 68 59 63 67 62 71 73 78 76 70 67 54 66 66 72 95 85 83 94 90 83 80 79 76 79 82 80 81 78 88 87 80 79 78 64 58 57 49 49
100 100 100 72 56 68 62 62 64 51 74 77 80 76 73 74 74 61 70 68 76 86 82 94 92 85 92 81 82 82 83 81 82 84 80 86 88 80 83 80 71 60 54 51 46
100 100 100 72 74 78 70 68 59 49 91 74 86 74 78 76 72 66 75 77 72 86 83 92 91 90 91 95 85 90 71 74 86 88 100 86 95 78 66 71 59 57 53 53 47
89 100 99 75 83 79 71 69 45 69 93 63 84 76 82 76 67 62 75 73 80 83 81 92 91 86 83 94 85 90 76 78 76 85 91 98 99 57 59 72 58 63 49 50 46
84 100 100 86 84 80 83 55 63 85 95 92 86 85 84 84 85 82 79 73 77 80 78 85 76 76 74 73 78 82 83 83 90 96 98 90 85 60 59 55 48 49 46 41 42
98 100 98 81 80 80 75 62 90 97 71 82 91 90 77 96 91 85 83 84 91 88 99 88 86 80 83 84 83 89 78 99 98 98 87 74 79 68 54 41 41 46 38 36 37
94 100 98 93 86 77 67 79 96 69 90 62 75 80 82 91 82 85 84 95 89 87 94 94 95 97 82 82 93 91 69 85 93 95 77 75 81 62 35 40 40 40 40 41 41
98 100 97 100 93 73 72 94 80 78 73 79 75 85 84 75 79 83 88 84 81 93 85 96 99 79 90 75 83 86 86 56 69 63 80 72 49 38 38 41 41 39 36 35 33
100 99 100 99 97 81 82 82 78 67 69 69 80 80 88 90 85 82 91 72 75 82 73 81 96 81 78 68 66 69 58 69 83 74 61 67 63 46 42 40 42 45 39 34 31
100 99 98 100 97 88 96 85 74 64 62 68 79 86 78 87 82 83 82 70 66 70 69 69 74 88 68 82 75 71 67 70 66 83 74 77 60 40 40 40 47 47 42 40 37
100 100 98 95 94 92 96 73 69 66 63 61 70 75 67 77 76 84 86 81 60 54 68 71 83 96 82 72 71 72 68 65 80 72 87 77 57 49 42 47 46 45 41 40 40
100 100 100 98 98 99 70 81 77 70 67 68 65 60 57 65 86 73 77 66 56 58 68 64 83 94 80 66 66 75 71 70 72 77 84 77 57 43 53 50 44 41 39 40 44
98 99 100 100 96 79 93 92 74 62 66 62 58 52 61 67 66 81 79 71 63 59 59 59 78 72 83 64 74 86 76 74 74 88 75 73 53 42 41 46 38 40 40 41 42
94 97 90 97 93 91 87 80 62 76 59 55 55 56 64 74 75 85 79 74 67 61 64 63 84 81 67 75 74 74 70 80 84 70 78 61 63 43 51 48 44 40 44 43 44
95 94 90 84 82 81 88 91 72 69 64 63 63 58 56 69 66 82 81 75 69 64 64 72 92 71 72 68 71 70 65 70 75 72 73 68 68 53 44 48 47 46 45 44 45
88 84 68 79 82 79 84 89 76 76 77 60 61 73 71 71 62 61 58 62 64 70 73 74 86 89 88 76 66 71 64 68 69 69 66 79 62 55 51 49 46 48 50 50 47

GFSSW_850_rhum_090.txt.gz
RH
100 94 65 58 47 83 94 84 57 74 96 94 88 82 87 75 46 47 38 44 56 78 88 90 75 92 89 86 82 86 92 84 76 72 70 44 43 41 34 41 50 57 52 53 87
100 100 85 62 50 59 69 92 87 71 69 92 84 67 84 80 55 41 44 51 92 93 77 80 82 66 90 77 77 90 82 72 59 63 60 54 48 44 61 79 79 75 65 66 59
100 99 99 79 59 55 50 98 97 89 73 93 83 84 75 73 54 51 50 70 89 72 69 75 84 93 82 68 70 79 85 60 60 59 80 64 57 49 67 88 67 80 68 63 58
99 100 99 94 67 51 66 90 98 94 76 99 84 81 74 66 63 49 56 89 90 74 79 94 99 99 77 75 64 87 68 68 58 62 94 79 67 59 64 57 59 66 56 63 75
99 98 100 99 75 57 49 87 98 100 85 92 81 72 80 69 55 52 58 64 76 78 86 87 100 90 75 78 75 81 74 66 65 62 85 90 83 66 58 74 70 75 68 60 46
98 94 100 100 81 65 53 60 78 100 96 88 80 80 86 93 55 59 67 72 71 88 100 94 94 78 74 69 92 71 70 66 72 69 71 93 82 77 64 85 98 68 84 70 90
92 100 95 100 90 68 56 62 48 100 99 66 78 84 86 71 62 63 70 71 84 100 100 96 86 91 66 82 69 66 83 72 76 77 89 90 86 90 84 78 100 88 78 95 98
100 100 100 100 96 70 57 48 55 97 85 62 82 86 80 62 66 66 72 79 89 77 87 83 88 91 96 95 92 88 83 94 78 76 86 85 98 88 81 75 81 98 59 92 85
87 100 100 100 98 70 60 55 68 86 78 87 84 89 85 63 65 62 70 69 83 86 82 82 92 89 92 96 92 89 89 91 85 79 94 88 92 86 79 76 68 72 79 75 73
22 99 100 100 99 79 57 70 59 62 70 88 92 96 68 65 63 66 64 67 80 81 78 83 95 97 98 94 96 96 94 95 92 87 84 90 85 75 80 80 77 64 64 69 61
14 87 100 100 99 70 57 68 84 89 84 72 68 74 72 68 62 60 64 61 74 86 97 96 100 100 88 79 72 89 86 96 91 84 90 91 90 76 83 82 82 63 58 55 59
20 53 99 100 98 80 67 76 73 71 65 70 73 78 76 70 79 59 63 63 71 93 84 86 98 94 88 88 80 79 92 97 89 88 87 87 86 78 81 84 81 72 56 53 52
21 33 98 100 97 74 74 67 70 59 67 77 76 78 70 70 74 68 70 68 78 85 87 88 88 81 90 84 83 80 78 86 84 86 84 87 89 86 86 92 86 69 63 54 51
31 31 99 100 98 77 73 71 73 60 90 76 88 78 75 77 69 71 75 74 67 84 87 90 84 84 96 85 90 87 77 70 86 85 93 80 93 78 76 84 83 66 60 53 51
41 35 96 100 92 94 82 72 66 78 77 64 86 78 83 80 63 62 72 75 80 79 79 93 88 82 96 97 83 91 78 81 78 91 92 97 96 71 72 85 72 61 54 46 46
77 42 91 100 95 93 87 72 70 85 73 90 84 83 87 86 86 77 77 73 78 84 80 89 72 79 85 88 86 80 84 88 96 92 96 91 78 66 70 64 56 49 48 43 39
88 75 91 100 96 92 93 68 89 89 65 90 92 89 82 82 86 83 83 80 89 95 99 86 85 82 83 89 80 78 98 99 98 98 92 82 80 69 53 49 44 47 42 36 38
70 76 74 100 95 98 98 82 92 63 89 64 83 88 91 82 84 85 83 88 84 91 83 92 83 93 79 85 89 90 77 95 94 96 93 81 87 59 41 45 47 43 48 47 42
86 78 97 100 98 100 90 99 74 78 76 86 76 85 87 86 81 82 90 85 76 90 86 96 97 83 83 80 87 76 82 59 70 65 84 82 57 36 40 46 45 42 39 40 38
97 98 100 97 99 100 97 83 73 63 73 67 75 78 94 90 84 84 86 73 77 80 78 79 94 95 82 79 71 73 58 70 81 80 65 68 62 49 45 46 47 49 46 37 35
98 99 98 97 100 99 98 89 73 64 67 65 75 89 80 89 83 78 80 71 71 76 77 70 78 92 70 87 79 73 70 70 72 82 73 71 52 41 45 41 54 55 48 45 40
100 100 100 98 100 98 97 74 65 71 69 65 69 71 80 83 88 91 84 78 63 62 76 66 83 99 88 76 74 76 72 65 79 72 87 78 57 55 53 48 50 49 46 44 41
98 98 100 100 99 98 76 76 76 74 71 70 70 66 56 72 82 78 78 68 61 60 76 66 82 93 83 68 65 76 73 72 72 76 84 77 61 46 56 53 46 44 44 46 45
97 99 100 100 97 88 92 89 90 70 69 65 60 56 65 69 76 84 82 73 64 62 61 58 78 71 87 66 76 85 79 70 74 86 74 70 53 46 49 49 39 43 47 45 44
99 99 98 98 98 86 86 85 79 79 64 54 58 58 68 77 77 86 82 73 66 62 68 64 86 83 78 80 75 73 72 80 84 69 76 60 62 45 54 50 45 40 45 45 45
96 97 95 90 80 89 84 88 70 72 71 67 64 60 57 72 69 84 82 74 66 65 69 73 95 71 76 72 69 68 69 74 79 75 73 68 69 54 44 50 48 46 46 46 45
91 94 81 95 84 83 94 87 64 76 77 60 60 70 67 67 62 62 64 67 65 66 76 76 84 88 87 78 68 68 62 70 71 71 70 81 67 56 56 53 49 49 51 50 49

GFSSW_850_rhum_096.txt.gz
RH
100 98 99 98 96 98 99 72 49 43 63 47 35 90 89 84 74 70 73 46 38 58 87 85 73 78 82 78 74 64 73 62 45 38 33 24 25 33 42 38 33 38 51 55 47
98 100 92 99 99 86 94 89 51 54 63 46 36 89 92 79 80 63 45 42 62 94 88 71 62 74 64 65 66 59 58 46 31 29 31 30 30 31 36 42 42 39 56 80 64
80 97 99 94 100 97 97 90 63 60 72 51 58 94 97 79 70 51 43 62 92 83 68 76 85 95 73 60 55 50 62 34 35 34 35 38 37 36 42 41 39 35 41 69 100
98 99 100 96 98 99 100 99 72 57 90 51 61 97 91 76 66 44 47 69 83 82 79 83 79 84 75 66 51 57 41 41 38 38 43 43 45 41 42 38 39 40 58 87 100
100 100 99 99 91 100 100 99 72 61 80 65 76 95 85 81 74 51 56 59 60 68 81 83 84 86 83 63 53 50 42 37 40 39 43 53 51 51 53 55 52 45 48 74 94
95 83 60 85 94 96 100 100 82 62 61 69 82 91 93 86 58 56 62 61 63 77 86 86 91 80 79 78 62 39 40 40 39 39 45 49 50 59 54 72 77 65 54 61 77
93 73 21 38 80 99 100 99 98 60 60 77 93 85 98 84 62 65 67 60 70 86 90 93 98 98 99 71 67 56 54 53 51 46 54 48 63 58 54 63 74 69 55 59 79
94 58 21 25 96 98 100 100 86 68 74 87 77 83 94 62 61 66 66 61 70 81 79 94 98 99 98 69 56 79 81 83 50 47 51 63 60 36 64 79 76 76 59 59 78
80 50 24 22 85 100 99 99 80 73 93 83 79 98 88 69 64 58 53 74 87 83 85 94 93 88 76 66 63 62 98 99 73 50 62 66 55 41 69 65 77 75 63 66 77
72 58 34 22 83 100 100 98 78 92 84 80 96 93 73 68 61 58 59 69 84 89 86 96 96 80 74 73 68 88 71 56 61 66 64 76 84 59 62 68 81 73 73 65 74
72 65 40 23 79 100 100 89 86 96 73 71 79 82 74 71 65 57 68 75 84 86 91 81 96 95 69 61 57 88 76 67 83 66 68 64 71 67 57 66 82 74 82 71 78
90 87 45 34 80 96 100 85 90 88 79 72 84 87 74 77 70 62 70 71 66 72 72 89 93 68 84 78 82 85 68 73 88 81 70 78 81 62 58 59 82 72 89 91 84
92 93 50 85 100 100 98 93 93 87 72 71 72 82 83 75 67 60 79 72 60 75 71 75 63 72 77 78 89 69 50 75 82 74 65 71 92 91 76 82 82 78 77 94 100
98 92 50 87 100 99 95 93 97 82 86 79 88 86 78 77 63 65 74 73 60 71 65 71 62 77 74 69 76 62 51 58 83 74 70 56 94 100 90 88 68 70 70 72 96
96 94 58 88 89 99 94 94 98 82 93 76 87 85 85 70 56 60 73 82 59 64 73 74 77 96 82 85 87 65 60 62 65 67 57 70 90 97 82 70 63 65 72 65 67
91 95 66 77 91 98 96 99 82 97 93 98 86 80 78 76 75 68 73 74 74 74 92 81 70 80 79 82 91 76 64 65 69 65 70 88 99 94 70 52 65 64 68 72 59
91 76 73 65 91 97 98 96 98 90 68 97 81 76 76 77 72 67 66 62 70 96 95 72 92 70 84 95 89 77 64 83 76 83 84 93 92 66 45 41 46 57 58 65 67
80 77 80 86 79 99 99 99 94 73 80 74 76 76 82 59 68 68 63 55 65 72 70 79 87 95 76 90 96 89 76 72 66 67 79 72 83 66 42 42 46 71 51 56 53
90 87 86 73 63 94 98 95 90 88 77 78 75 79 82 68 64 67 63 64 61 76 77 76 96 86 83 84 89 80 68 50 60 55 58 62 45 45 45 46 51 54 53 56 51
83 78 79 80 70 99 98 81 92 72 67 64 62 62 68 64 65 64 63 60 70 64 65 70 96 89 84 67 66 66 51 59 62 65 71 50 51 60 48 44 47 45 50 56 58
87 98 83 99 98 98 97 92 96 74 67 58 60 68 61 69 61 64 68 67 74 69 67 62 70 90 77 86 82 60 54 52 49 53 46 51 50 37 41 43 45 47 51 55 59
98 94 98 99 99 98 92 96 92 69 66 65 59 61 57 66 62 66 66 76 69 61 66 60 63 92 80 61 64 65 59 46 50 54 57 42 49 40 39 43 46 54 56 57 54
98 97 99 97 100 100 99 98 90 71 66 64 65 57 58 65 69 68 69 69 66 59 62 53 66 78 68 57 54 62 57 52 49 54 72 48 50 40 41 44 47 49 48 51 50
97 88 100 100 97 77 99 99 89 70 68 63 60 53 57 68 65 74 68 67 67 65 67 51 59 64 63 68 69 73 64 55 56 65 44 46 52 46 45 44 46 49 48 49 49
98 90 98 100 97 90 93 99 72 76 67 60 58 55 56 69 68 73 68 62 58 62 58 50 88 83 64 61 64 63 65 58 74 54 53 47 45 42 40 38 40 46 50 50 51
96 96 94 96 98 97 99 93 69 73 71 64 61 59 53 55 54 68 63 59 56 53 57 56 81 67 62 54 54 64 62 64 60 55 54 48 50 37 43 44 43 48 51 53 55
88 88 81 99 100 94 78 66 61 70 70 66 56 54 57 61 60 61 63 59 55 53 58 58 68 72 74 61 53 51 54 58 61 60 53 48 50 46 45 46 49 56 57 63 65

GFSSW_850_rhum_099.txt.gz
RH
87 91 96 98 97 100 100 89 93 70 51 62 54 59 90 89 78 92 71 62 51 45 61 72 60 55 62 60 50 49 52 49 38 35 29 20 18 15 18 20 22 23 25 33 47
70 63 95 99 100 97 100 90 95 75 68 49 52 67 87 80 80 69 58 37 46 94 74 60 49 53 51 47 53 50 50 44 27 24 25 21 19 18 18 20 24 27 28 34 66
94 100 99 100 100 96 100 100 95 82 98 62 43 79 88 77 68 46 37 40 82 89 77 64 66 65 60 41 43 44 52 31 27 25 24 24 23 21 22 22 22 25 29 42 66
95 97 100 99 100 99 99 100 97 93 80 74 47 88 87 77 52 49 40 80 86 82 77 75 71 69 65 50 39 43 37 34 32 29 26 28 28 30 30 26 27 23 26 42 55
97 93 92 94 96 100 99 100 99 99 73 68 51 88 90 74 56 58 48 60 65 72 75 70 73 70 69 54 47 42 35 34 33 32 32 30 32 39 30 33 40 31 37 52 61
69 90 93 45 29 80 99 100 100 99 82 58 85 93 93 70 63 56 66 58 67 71 71 73 77 77 78 68 63 50 44 37 35 34 32 33 30 31 38 39 42 49 51 52 62
74 67 48 33 19 51 94 100 100 98 77 71 90 96 94 67 64 66 56 67 71 76 76 76 84 89 89 72 60 59 54 42 39 36 34 31 36 35 35 38 41 48 52 57 51
69 67 54 35 21 80 90 100 100 97 77 85 87 100 69 74 74 74 71 70 70 83 91 92 95 94 98 70 56 56 52 65 38 35 40 37 56 32 31 36 40 47 54 56 47
71 65 62 41 31 96 99 100 100 88 86 84 93 94 68 75 71 67 65 59 69 86 94 88 96 85 88 95 68 47 66 68 71 45 40 44 60 37 31 48 48 50 55 56 52
75 70 69 49 32 82 100 100 98 94 97 99 99 89 76 65 66 64 63 72 73 86 84 94 97 91 69 79 65 57 66 57 92 51 43 50 60 45 54 49 50 60 57 54 52
81 80 77 64 35 82 100 97 99 96 98 76 78 67 64 74 66 68 66 72 74 72 82 75 95 94 68 60 51 51 62 70 85 84 48 54 57 44 37 44 51 59 72 56 56
85 86 80 58 57 63 100 96 87 91 92 83 70 74 82 77 59 62 71 67 57 69 69 96 96 59 67 74 64 61 64 64 66 66 55 53 49 41 42 43 46 61 67 67 70
84 90 84 58 94 100 100 96 88 88 85 67 73 80 74 79 55 50 68 56 50 53 64 86 61 52 78 79 76 64 66 58 83 86 64 66 74 65 59 62 54 67 63 79 75
97 97 86 55 84 97 97 95 96 88 99 77 74 75 83 73 59 56 71 62 48 57 53 54 46 62 64 67 62 88 42 57 87 98 92 57 86 92 92 70 62 64 75 88 100
93 96 88 60 99 98 96 94 98 85 95 73 82 86 80 63 52 57 75 70 56 51 61 65 61 93 86 94 86 67 44 69 68 64 89 69 67 99 93 85 75 79 85 100 99
99 97 72 74 65 90 96 96 88 99 95 97 79 74 70 63 50 57 61 73 63 62 68 68 57 75 73 72 77 71 60 56 60 70 95 96 99 100 99 95 86 68 75 92 98
98 95 60 97 96 95 93 98 100 96 63 91 76 66 62 66 64 50 53 61 65 97 86 57 60 64 80 95 81 81 60 92 93 88 94 97 98 100 76 77 73 74 71 71 76
85 73 60 96 92 99 99 99 99 66 87 71 60 60 62 53 60 54 51 55 50 58 65 72 90 85 77 93 98 81 86 96 66 81 91 82 96 100 60 59 69 72 69 84 82
78 74 92 89 96 93 97 98 100 90 70 68 61 66 59 50 52 49 47 55 53 58 90 70 92 73 89 81 84 62 70 45 52 42 53 83 98 77 69 64 74 66 70 64 71
82 89 94 84 98 93 97 88 100 76 65 54 68 57 61 49 52 56 54 51 60 57 55 91 100 88 84 89 77 80 49 70 63 61 63 75 87 93 90 75 75 78 64 57 59
98 80 89 84 80 98 90 100 98 70 67 59 56 51 40 45 58 48 52 62 67 64 68 84 97 87 79 70 71 59 50 43 41 47 41 56 88 40 47 59 48 50 53 56 54
93 89 84 97 96 97 95 91 98 71 59 58 53 48 42 46 50 50 56 69 70 58 86 65 68 98 72 52 53 57 47 40 46 45 42 44 62 33 39 40 44 48 48 49 49
99 100 100 98 96 94 96 96 88 65 61 61 60 50 45 50 57 53 59 61 58 54 58 47 57 86 66 52 47 53 44 38 41 53 63 48 55 33 37 39 40 42 43 44 43
92 100 98 99 97 68 97 100 80 67 62 63 53 44 48 52 50 59 56 60 61 55 62 50 56 68 72 72 64 62 46 40 54 61 38 42 51 43 40 42 41 41 41 44 47
93 91 97 99 77 73 93 92 62 71 64 60 51 46 46 54 50 58 54 52 50 53 48 44 82 85 52 50 54 54 50 43 59 40 53 42 44 39 36 37 38 42 43 44 48
88 79 91 79 82 96 92 69 56 64 65 63 54 46 42 49 51 52 51 47 48 44 46 45 78 62 54 46 49 58 51 47 45 39 37 38 43 34 37 36 38 42 44 47 51
99 83 71 99 96 75 64 56 54 58 61 58 52 43 49 60 52 51 49 47 46 45 46 48 60 68 69 51 47 49 51 50 52 47 38 44 41 35 40 40 43 48 49 53 57

GFSSW_850_rhum_102.txt.gz
RH
99 98 96 86 91 99 99 100 100 95 86 68 66 48 48 86 86 82 96 61 58 57 36 70 60 53 53 59 54 46 66 64 50 40 34 24 25 22 19 18 15 17 19 22 36
98 97 100 100 98 98 100 100 100 94 90 77 62 48 52 80 83 93 68 57 45 41 76 62 50 48 49 47 52 55 65 57 35 29 29 24 24 22 21 19 18 16 19 20 30
91 86 91 100 98 93 98 97 100 100 100 86 64 49 62 81 89 57 52 37 51 59 72 59 60 58 61 52 43 49 66 46 41 34 30 28 26 24 24 26 20 20 19 19 30
96 95 94 97 92 92 90 100 98 100 97 92 67 45 78 81 67 52 34 47 95 85 73 68 70 67 68 61 43 46 37 37 37 35 34 34 30 28 25 25 28 27 32 30 31
80 91 95 95 93 52 88 100 90 100 99 91 61 51 85 85 65 50 49 79 73 74 71 67 70 66 64 54 50 52 46 38 34 34 34 34 33 32 30 31 32 33 33 40 42
82 80 88 69 86 29 20 90 95 100 98 91 56 87 84 74 59 57 63 70 62 64 68 67 75 68 71 70 68 53 50 50 48 46 35 35 34 32 31 28 32 36 35 41 60
83 74 80 65 56 31 21 62 97 100 96 81 72 90 95 71 59 58 65 64 68 70 69 70 76 83 84 70 64 65 63 59 53 44 45 37 45 40 31 28 28 34 36 42 63
84 80 73 84 57 27 54 72 100 100 93 89 86 93 83 73 74 67 68 69 69 76 86 84 92 84 89 82 67 67 70 86 49 43 41 44 62 39 31 27 27 33 36 46 61
93 95 78 73 68 33 89 100 100 100 88 92 84 95 70 77 67 70 68 60 63 88 87 84 87 91 88 92 85 67 88 81 67 45 48 49 58 45 34 30 28 29 47 48 57
97 97 81 74 65 51 80 100 99 99 90 98 97 94 77 68 68 58 58 57 67 80 88 91 86 87 90 96 92 80 81 64 61 59 81 64 59 49 38 37 43 46 54 53 53
84 92 81 75 67 49 70 99 97 100 100 91 82 67 65 68 65 64 58 69 70 65 76 85 98 94 68 66 73 69 76 77 54 48 90 68 56 49 54 76 53 56 58 69 56
92 83 80 78 64 74 68 98 92 93 95 90 83 78 76 76 61 62 63 64 64 74 66 94 93 64 60 58 81 92 84 70 53 65 85 65 56 50 56 80 56 47 53 65 67
89 93 84 85 72 98 92 99 99 92 89 79 79 82 78 74 56 56 67 58 55 62 56 95 67 48 74 82 93 76 74 62 82 90 67 74 77 64 50 61 57 52 56 59 76
84 96 97 90 71 96 99 97 100 96 100 85 71 73 77 75 61 51 60 60 47 57 49 61 60 64 68 82 70 78 56 59 95 98 100 72 96 82 85 84 72 56 61 64 88
86 96 98 89 95 95 98 99 97 97 98 89 82 88 76 66 56 56 66 65 58 48 54 61 65 91 82 73 75 71 65 76 80 92 100 98 91 98 95 86 70 73 69 89 100
93 95 93 76 61 89 93 94 91 99 97 99 81 78 72 64 44 57 65 67 65 61 54 62 54 73 71 71 71 69 78 69 68 84 99 100 99 100 100 98 87 89 100 100 93
87 93 83 97 88 85 84 91 100 98 91 87 75 66 74 61 60 47 50 67 79 91 83 62 64 62 75 91 83 84 94 97 98 99 98 100 98 100 98 87 87 94 100 100 93
67 77 78 98 85 93 86 98 98 93 99 61 59 60 90 54 58 51 50 60 51 55 89 88 94 78 83 92 96 94 96 99 97 97 99 78 98 100 92 89 86 98 100 99 97
77 84 94 85 76 80 93 99 100 99 77 61 57 59 58 51 51 49 51 60 56 55 98 89 97 75 82 82 84 85 92 56 98 77 97 100 100 96 88 88 76 82 98 99 89
78 84 84 98 92 92 95 100 100 74 65 57 73 48 54 49 49 52 51 54 66 58 67 93 98 86 84 86 81 89 65 77 86 96 96 91 91 100 99 92 81 75 83 86 84
80 84 90 95 91 81 97 100 98 64 62 72 74 48 39 46 61 92 62 66 62 66 76 85 100 97 90 83 74 74 62 55 50 59 71 86 97 80 87 73 75 78 70 59 60
83 90 99 82 92 97 100 97 95 66 57 57 54 44 42 43 55 61 71 73 66 80 96 77 93 97 68 56 52 60 52 46 78 62 68 86 92 55 52 53 56 58 55 61 51
97 98 95 97 87 90 98 84 85 65 59 61 56 46 45 55 64 57 58 62 54 57 65 55 72 94 70 61 53 56 44 45 59 78 68 86 85 44 49 48 46 46 45 46 48
97 99 91 97 95 65 91 88 71 67 59 57 51 41 47 49 48 57 58 59 60 53 58 61 66 82 90 79 68 69 51 47 66 78 64 67 64 55 54 52 47 45 47 51 53
92 89 84 94 79 74 81 76 54 66 58 56 49 46 48 52 53 59 52 53 52 47 49 55 83 83 54 53 57 58 55 50 58 50 70 58 57 52 52 51 46 44 47 52 56
83 74 76 72 80 74 80 66 55 61 67 57 54 46 52 62 58 56 49 52 55 41 45 48 81 62 56 48 52 61 56 56 56 44 47 49 54 44 40 40 43 44 48 53 56
83 72 65 84 81 66 59 59 58 60 60 56 56 54 64 65 50 47 45 45 48 55 52 54 72 81 76 59 57 68 58 55 53 56 46 59 52 44 45 47 48 48 53 58 61

GFSSW_850_rhum_105.txt.gz
RH
92 96 97 100 99 90 99 99 99 100 97 94 78 60 41 59 90 85 70 64 61 62 46 60 61 53 56 59 56 52 76 83 64 55 47 32 31 25 25 24 22 21 19 20 32
96 96 94 96 96 96 95 98 100 100 100 100 88 65 42 71 90 82 66 86 61 55 52 66 53 51 49 49 54 62 83 63 47 43 43 38 34 32 28 27 26 23 20 37 47
88 87 90 94 97 94 95 85 99 98 100 99 95 69 45 76 87 73 58 84 43 42 68 59 55 58 60 57 52 57 73 52 50 46 44 43 39 34 33 33 27 26 27 29 35
80 80 76 82 94 94 94 92 98 100 99 100 95 71 66 80 83 59 55 44 47 56 71 67 68 67 69 70 55 60 45 45 44 41 40 40 37 36 34 32 29 29 30 31 38
79 78 83 73 87 91 79 33 77 100 100 100 92 67 78 89 67 48 34 80 71 67 74 70 67 65 64 60 62 68 56 50 49 47 44 38 38 38 36 32 30 29 29 30 35
83 79 76 74 80 83 44 24 39 96 99 99 88 59 75 86 61 59 51 54 62 62 71 66 64 66 67 71 78 65 65 62 56 55 54 56 52 38 35 32 30 29 30 28 33
82 97 83 84 81 67 46 21 23 73 100 97 98 74 84 72 59 59 58 56 60 67 68 63 68 68 69 82 72 68 84 71 61 57 61 52 59 53 40 34 32 32 31 29 32
88 92 93 88 82 66 36 42 39 93 97 92 98 90 86 83 62 59 71 65 65 72 76 76 75 77 78 81 73 77 75 95 57 54 56 56 69 45 38 37 34 32 30 28 29
82 99 98 96 85 69 36 98 91 100 100 91 94 93 81 79 72 65 57 66 68 74 83 81 88 77 84 85 87 78 93 90 76 54 56 59 71 53 43 38 37 34 32 28 34
80 98 97 96 87 73 52 66 99 99 100 96 86 88 88 82 70 68 65 63 66 80 92 82 80 76 86 93 96 84 90 76 78 62 59 67 80 66 48 44 45 63 61 40 40
98 99 96 86 80 69 82 95 100 99 100 93 92 76 76 69 62 60 58 60 69 70 79 88 94 92 85 89 80 83 88 88 75 63 72 74 79 77 53 57 69 62 64 50 46
82 87 86 86 79 65 78 91 95 94 96 94 95 82 70 67 69 62 60 69 73 66 68 95 96 76 74 74 78 74 90 92 74 62 90 88 82 63 56 61 62 66 67 47 46
84 83 82 88 75 94 82 95 98 97 92 100 95 95 80 65 60 63 62 64 64 74 69 89 70 62 72 81 90 90 89 84 81 70 84 88 90 76 58 61 55 56 59 53 53
82 92 97 77 74 88 78 93 98 93 99 97 87 90 88 71 68 60 52 64 57 62 63 68 57 68 70 72 82 95 64 64 86 98 98 94 95 91 90 88 76 73 66 56 52
87 95 88 79 93 92 93 99 97 89 97 93 86 87 75 73 56 61 62 65 70 63 59 63 75 88 90 78 76 79 76 87 86 96 100 89 99 98 96 88 85 83 68 59 74
89 87 80 65 69 89 96 98 90 98 97 99 89 88 77 70 54 65 66 64 62 71 63 67 58 71 77 75 76 73 84 85 82 90 98 100 100 99 100 96 87 81 71 81 100
83 93 90 85 86 91 90 90 93 97 96 92 87 77 74 70 58 64 69 85 87 89 80 70 75 66 74 89 81 90 95 96 98 98 98 100 97 99 99 88 82 94 100 99 100
71 74 68 81 90 75 74 90 94 96 91 71 68 88 88 70 65 56 61 69 69 78 95 97 90 78 83 87 97 86 98 99 96 97 99 99 98 98 95 97 99 98 100 100 100
82 81 79 78 73 75 74 97 99 100 85 66 67 69 64 57 58 62 58 67 64 56 97 91 96 79 80 78 84 88 100 94 99 100 98 99 100 98 86 94 95 99 100 100 99
72 75 92 85 67 72 89 100 100 76 71 78 78 52 65 54 54 68 61 64 70 74 73 88 97 87 82 84 86 93 80 98 98 97 96 96 98 98 100 96 92 94 97 99 95
80 76 90 72 63 74 98 100 95 74 67 83 75 55 48 54 74 89 86 75 68 87 82 94 100 95 90 93 78 88 78 68 61 72 84 93 98 98 96 84 87 77 71 90 84
75 95 77 76 82 92 95 95 85 78 58 60 58 54 44 50 64 85 85 83 80 80 96 85 92 99 74 56 57 64 70 53 83 65 84 90 99 84 84 81 74 81 54 53 58
83 92 76 81 97 93 82 77 82 68 63 67 60 49 46 62 67 64 72 66 69 66 66 63 82 94 77 62 59 71 55 52 64 74 83 90 100 63 54 55 51 53 64 54 55
84 93 71 84 89 83 83 84 72 66 66 61 62 45 49 55 55 60 65 61 58 55 58 62 70 80 94 79 73 74 61 57 66 86 82 98 95 64 60 58 54 55 55 56 57
88 88 82 95 87 83 82 81 72 76 62 57 53 61 60 72 61 62 54 54 56 49 48 60 79 82 57 57 59 64 67 64 65 63 73 83 72 66 62 61 54 55 58 60 60
81 80 76 74 77 76 78 66 72 68 68 70 73 65 70 76 71 72 61 63 64 56 51 60 78 67 62 56 58 63 61 64 59 56 61 63 64 53 51 48 50 55 59 62 65
79 74 67 80 86 84 67 64 70 66 61 65 70 65 74 71 64 58 49 50 51 56 64 60 78 84 79 59 62 72 61 61 59 61 55 68 57 52 57 56 56 57 59 63 64